Wetterdaten: Montag, 03.11.2014
Datum Zeit Temp. Aussen +5cm Feuchte Auss Luftdruck Regen Sonnenschein Regendauer Solar Windben
03.11.2014 00:00 13,8 C 12,2 C 95 % 1005,8 hPa 0,0 l/m 0 min 2 min 0 W/m 16,7 km/h (3 Bft)
03.11.2014 00:02 13,8 C 12,2 C 95 % 1005,8 hPa 0,0 l/m 0 min 2 min 0 W/m 12,6 km/h (3 Bft)
03.11.2014 00:05 13,9 C 12,2 C 95 % 1005,8 hPa 0,0 l/m 0 min 2 min 0 W/m 16,7 km/h (3 Bft)
03.11.2014 00:06 13,9 C 12,2 C 95 % 1005,8 hPa 0,0 l/m 0 min 1 min 0 W/m 16,7 km/h (3 Bft)
03.11.2014 00:10 13,9 C 12,2 C 95 % 1005,7 hPa 0,0 l/m 0 min 2 min 0 W/m 16,7 km/h (3 Bft)
03.11.2014 00:14 13,9 C 12,2 C 95 % 1005,7 hPa 0,0 l/m 0 min 2 min 0 W/m 14,6 km/h (3 Bft)
03.11.2014 00:16 13,9 C 12,2 C 95 % 1005,7 hPa 0,0 l/m 0 min 2 min 0 W/m 12,6 km/h (3 Bft)
03.11.2014 00:18 13,9 C 12,2 C 95 % 1005,7 hPa 0,0 l/m 0 min 2 min 0 W/m 20,9 km/h (4 Bft)
03.11.2014 00:20 13,9 C 12,2 C 95 % 1005,6 hPa 0,0 l/m 0 min 2 min 0 W/m 18,8 km/h (3 Bft)
03.11.2014 00:24 13,9 C 12,2 C 95 % 1005,5 hPa 0,0 l/m 0 min 2 min 0 W/m 20,9 km/h (4 Bft)
03.11.2014 00:26 13,9 C 12,2 C 95 % 1005,5 hPa 0,0 l/m 0 min 2 min 0 W/m 12,6 km/h (3 Bft)
03.11.2014 00:28 13,9 C 12,2 C 95 % 1005,5 hPa 0,0 l/m 0 min 2 min 0 W/m 29,3 km/h (5 Bft)
03.11.2014 00:30 13,9 C 12,2 C 95 % 1005,5 hPa 0,0 l/m 0 min 2 min 0 W/m 16,7 km/h (3 Bft)
03.11.2014 00:32 13,9 C 12,2 C 95 % 1005,4 hPa 0,0 l/m 0 min 2 min 0 W/m 27,2 km/h (4 Bft)
03.11.2014 00:34 13,9 C 12,2 C 95 % 1005,5 hPa 0,0 l/m 0 min 2 min 0 W/m 23,0 km/h (4 Bft)
03.11.2014 00:36 13,9 C 12,2 C 95 % 1005,5 hPa 0,0 l/m 0 min 2 min 0 W/m 18,8 km/h (3 Bft)
03.11.2014 00:38 13,9 C 12,2 C 95 % 1005,5 hPa 0,0 l/m 0 min 2 min 0 W/m 14,6 km/h (3 Bft)
03.11.2014 00:40 13,9 C 12,2 C 95 % 1005,4 hPa 0,0 l/m 0 min 2 min 0 W/m 18,8 km/h (3 Bft)
03.11.2014 00:42 14,0 C 12,2 C 95 % 1005,3 hPa 0,0 l/m 0 min 2 min 0 W/m 16,7 km/h (3 Bft)
03.11.2014 00:44 14,0 C 11,7 C 95 % 1005,2 hPa 0,0 l/m 0 min 2 min 0 W/m 16,7 km/h (3 Bft)
03.11.2014 00:46 13,9 C 11,7 C 95 % 1005,2 hPa 0,0 l/m 0 min 2 min 0 W/m 18,8 km/h (3 Bft)
03.11.2014 00:48 13,9 C 11,7 C 95 % 1005,1 hPa 0,0 l/m 0 min 2 min 0 W/m 20,9 km/h (4 Bft)
03.11.2014 00:50 13,9 C 11,7 C 95 % 1005,1 hPa 0,0 l/m 0 min 2 min 0 W/m 23,0 km/h (4 Bft)
03.11.2014 00:52 13,9 C 11,7 C 95 % 1005,1 hPa 0,0 l/m 0 min 2 min 0 W/m 16,7 km/h (3 Bft)
03.11.2014 00:54 13,9 C 11,7 C 95 % 1005,2 hPa 0,0 l/m 0 min 2 min 0 W/m 18,8 km/h (3 Bft)
03.11.2014 00:56 13,9 C 11,7 C 95 % 1005,1 hPa 0,0 l/m 0 min 2 min 0 W/m 14,6 km/h (3 Bft)
03.11.2014 00:58 13,9 C 11,7 C 95 % 1005,1 hPa 0,0 l/m 0 min 2 min 0 W/m 14,6 km/h (3 Bft)
03.11.2014 01:00 13,9 C 11,7 C 95 % 1005,2 hPa 0,0 l/m 0 min 2 min 0 W/m 18,8 km/h (3 Bft)
03.11.2014 01:02 13,9 C 11,7 C 95 % 1005,2 hPa 0,0 l/m 0 min 2 min 0 W/m 18,8 km/h (3 Bft)
03.11.2014 01:04 13,9 C 11,7 C 95 % 1005,2 hPa 0,0 l/m 0 min 2 min 0 W/m 12,6 km/h (3 Bft)
03.11.2014 01:06 13,9 C 11,7 C 95 % 1005,1 hPa 0,0 l/m 0 min 2 min 0 W/m 18,8 km/h (3 Bft)
03.11.2014 01:08 13,9 C 11,7 C 95 % 1005,1 hPa 0,0 l/m 0 min 2 min 0 W/m 18,8 km/h (3 Bft)
03.11.2014 01:10 13,9 C 11,7 C 95 % 1005,0 hPa 0,0 l/m 0 min 2 min 0 W/m 14,6 km/h (3 Bft)
03.11.2014 01:12 13,9 C 11,7 C 95 % 1005,1 hPa 0,0 l/m 0 min 2 min 0 W/m 14,6 km/h (3 Bft)
03.11.2014 01:14 13,8 C 11,7 C 95 % 1005,1 hPa 0,0 l/m 0 min 2 min 0 W/m 20,9 km/h (4 Bft)
03.11.2014 01:16 13,8 C 11,7 C 95 % 1005,0 hPa 0,0 l/m 0 min 2 min 0 W/m 16,7 km/h (3 Bft)
03.11.2014 01:18 13,8 C 11,7 C 95 % 1005,1 hPa 0,0 l/m 0 min 2 min 0 W/m 20,9 km/h (4 Bft)
03.11.2014 01:20 13,8 C 11,7 C 95 % 1005,1 hPa 0,0 l/m 0 min 2 min 0 W/m 14,6 km/h (3 Bft)
03.11.2014 01:22 13,8 C 11,7 C 95 % 1005,0 hPa 0,0 l/m 0 min 2 min 0 W/m 16,7 km/h (3 Bft)
03.11.2014 01:24 13,8 C 12,2 C 95 % 1005,0 hPa 0,0 l/m 0 min 2 min 0 W/m 20,9 km/h (4 Bft)
03.11.2014 01:26 13,8 C 12,2 C 95 % 1005,0 hPa 0,0 l/m 0 min 2 min 0 W/m 23,0 km/h (4 Bft)
03.11.2014 01:28 13,8 C 12,2 C 95 % 1005,0 hPa 0,0 l/m 0 min 2 min 0 W/m 20,9 km/h (4 Bft)
03.11.2014 01:30 13,8 C 12,2 C 95 % 1004,9 hPa 0,0 l/m 0 min 2 min 0 W/m 16,7 km/h (3 Bft)
03.11.2014 01:32 13,8 C 12,2 C 95 % 1004,9 hPa 0,0 l/m 0 min 2 min 0 W/m 23,0 km/h (4 Bft)
03.11.2014 01:34 13,9 C 12,2 C 95 % 1004,9 hPa 0,0 l/m 0 min 2 min 0 W/m 18,8 km/h (3 Bft)
03.11.2014 01:36 13,9 C 12,2 C 95 % 1004,8 hPa 0,0 l/m 0 min 2 min 0 W/m 20,9 km/h (4 Bft)
03.11.2014 01:38 13,9 C 12,2 C 95 % 1004,8 hPa 0,0 l/m 0 min 2 min 0 W/m 23,0 km/h (4 Bft)
03.11.2014 01:40 13,9 C 12,2 C 95 % 1004,9 hPa 0,0 l/m 0 min 2 min 0 W/m 18,8 km/h (3 Bft)
03.11.2014 01:42 13,9 C 12,2 C 95 % 1004,9 hPa 0,0 l/m 0 min 2 min 0 W/m 14,6 km/h (3 Bft)
03.11.2014 01:44 13,9 C 12,2 C 95 % 1004,9 hPa 0,0 l/m 0 min 2 min 0 W/m 12,6 km/h (3 Bft)
03.11.2014 01:46 13,9 C 12,2 C 95 % 1004,8 hPa 0,0 l/m 0 min 2 min 0 W/m 14,6 km/h (3 Bft)
03.11.2014 01:48 13,9 C 12,2 C 95 % 1004,8 hPa 0,0 l/m 0 min 2 min 0 W/m 12,6 km/h (3 Bft)
03.11.2014 01:50 13,9 C 12,2 C 95 % 1004,8 hPa 0,0 l/m 0 min 2 min 0 W/m 16,7 km/h (3 Bft)
03.11.2014 01:52 13,9 C 12,2 C 94 % 1004,8 hPa 0,0 l/m 0 min 2 min 0 W/m 14,6 km/h (3 Bft)
03.11.2014 01:54 13,9 C 12,2 C 94 % 1004,9 hPa 0,2 l/m 0 min 2 min 0 W/m 25,1 km/h (4 Bft)
03.11.2014 01:56 14,0 C 12,2 C 94 % 1004,8 hPa 0,0 l/m 0 min 2 min 0 W/m 20,9 km/h (4 Bft)
03.11.2014 01:58 14,0 C 12,2 C 94 % 1004,8 hPa 0,0 l/m 0 min 2 min 0 W/m 16,7 km/h (3 Bft)
03.11.2014 02:00 14,0 C 12,2 C 94 % 1004,7 hPa 0,0 l/m 0 min 2 min 0 W/m 23,0 km/h (4 Bft)
03.11.2014 02:02 14,1 C 12,2 C 95 % 1004,8 hPa 0,0 l/m 0 min 2 min 0 W/m 23,0 km/h (4 Bft)
03.11.2014 02:04 14,1 C 12,2 C 95 % 1004,8 hPa 0,0 l/m 0 min 2 min 0 W/m 18,8 km/h (3 Bft)
03.11.2014 02:06 14,1 C 12,2 C 95 % 1004,8 hPa 0,0 l/m 0 min 2 min 0 W/m 23,0 km/h (4 Bft)
03.11.2014 02:08 14,1 C 11,7 C 95 % 1004,7 hPa 0,0 l/m 0 min 2 min 0 W/m 23,0 km/h (4 Bft)
03.11.2014 02:10 14,1 C 12,2 C 94 % 1004,7 hPa 0,0 l/m 0 min 2 min 0 W/m 16,7 km/h (3 Bft)
03.11.2014 02:12 14,1 C 12,2 C 94 % 1004,7 hPa 0,0 l/m 0 min 2 min 0 W/m 14,6 km/h (3 Bft)
03.11.2014 02:14 14,1 C 12,2 C 94 % 1004,7 hPa 0,0 l/m 0 min 2 min 0 W/m 29,3 km/h (5 Bft)
03.11.2014 02:16 14,1 C 12,2 C 94 % 1004,8 hPa 0,0 l/m 0 min 2 min 0 W/m 27,2 km/h (4 Bft)
03.11.2014 02:18 14,2 C 12,2 C 94 % 1004,8 hPa 0,0 l/m 0 min 2 min 0 W/m 16,7 km/h (3 Bft)
03.11.2014 02:20 14,2 C 12,2 C 94 % 1004,8 hPa 0,0 l/m 0 min 2 min 0 W/m 14,6 km/h (3 Bft)
03.11.2014 02:22 14,2 C 12,2 C 94 % 1004,8 hPa 0,0 l/m 0 min 2 min 0 W/m 16,7 km/h (3 Bft)
03.11.2014 02:24 14,2 C 12,2 C 94 % 1004,8 hPa 0,0 l/m 0 min 2 min 0 W/m 16,7 km/h (3 Bft)
03.11.2014 02:26 14,2 C 12,2 C 94 % 1004,8 hPa 0,0 l/m 0 min 2 min 0 W/m 18,8 km/h (3 Bft)
03.11.2014 02:28 14,2 C 12,2 C 94 % 1004,7 hPa 0,0 l/m 0 min 2 min 0 W/m 14,6 km/h (3 Bft)
03.11.2014 02:30 14,2 C 12,2 C 94 % 1004,5 hPa 0,0 l/m 0 min 2 min 0 W/m 14,6 km/h (3 Bft)
03.11.2014 02:32 14,2 C 12,2 C 94 % 1004,5 hPa 0,0 l/m 0 min 2 min 0 W/m 14,6 km/h (3 Bft)
03.11.2014 02:34 14,2 C 12,2 C 94 % 1004,5 hPa 0,0 l/m 0 min 2 min 0 W/m 18,8 km/h (3 Bft)
03.11.2014 02:36 14,2 C 12,2 C 93 % 1004,4 hPa 0,0 l/m 0 min 2 min 0 W/m 10,5 km/h (2 Bft)
03.11.2014 02:38 14,2 C 12,2 C 93 % 1004,4 hPa 0,0 l/m 0 min 2 min 0 W/m 14,6 km/h (3 Bft)
03.11.2014 02:40 14,2 C 12,2 C 93 % 1004,5 hPa 0,0 l/m 0 min 2 min 0 W/m 14,6 km/h (3 Bft)
03.11.2014 02:42 14,2 C 12,2 C 93 % 1004,4 hPa 0,0 l/m 0 min 2 min 0 W/m 14,6 km/h (3 Bft)
03.11.2014 02:44 14,2 C 12,2 C 93 % 1004,3 hPa 0,0 l/m 0 min 2 min 0 W/m 18,8 km/h (3 Bft)
03.11.2014 02:46 14,2 C 12,2 C 93 % 1004,2 hPa 0,0 l/m 0 min 2 min 0 W/m 18,8 km/h (3 Bft)
03.11.2014 02:48 14,2 C 12,2 C 93 % 1004,2 hPa 0,0 l/m 0 min 2 min 0 W/m 12,6 km/h (3 Bft)
03.11.2014 02:50 14,2 C 12,2 C 93 % 1004,2 hPa 0,0 l/m 0 min 2 min 0 W/m 14,6 km/h (3 Bft)
03.11.2014 02:52 14,2 C 12,2 C 93 % 1004,2 hPa 0,0 l/m 0 min 2 min 0 W/m 14,6 km/h (3 Bft)
03.11.2014 02:54 14,2 C 12,2 C 93 % 1004,2 hPa 0,0 l/m 0 min 2 min 0 W/m 14,6 km/h (3 Bft)
03.11.2014 02:56 14,2 C 12,2 C 93 % 1004,2 hPa 0,0 l/m 0 min 2 min 0 W/m 14,6 km/h (3 Bft)
03.11.2014 02:58 14,2 C 12,2 C 93 % 1004,2 hPa 0,0 l/m 0 min 2 min 0 W/m 16,7 km/h (3 Bft)
03.11.2014 03:00 14,2 C 12,2 C 93 % 1004,1 hPa 0,0 l/m 0 min 2 min 0 W/m 12,6 km/h (3 Bft)
03.11.2014 03:02 14,3 C 12,2 C 93 % 1004,1 hPa 0,0 l/m 0 min 2 min 0 W/m 18,8 km/h (3 Bft)
03.11.2014 03:04 14,3 C 12,2 C 93 % 1004,0 hPa 0,0 l/m 0 min 2 min 0 W/m 18,8 km/h (3 Bft)
03.11.2014 03:06 14,3 C 12,2 C 93 % 1004,0 hPa 0,0 l/m 0 min 2 min 0 W/m 16,7 km/h (3 Bft)
03.11.2014 03:08 14,3 C 12,2 C 92 % 1003,9 hPa 0,0 l/m 0 min 2 min 0 W/m 18,8 km/h (3 Bft)
03.11.2014 03:10 14,3 C 12,2 C 92 % 1003,9 hPa 0,0 l/m 0 min 2 min 0 W/m 14,6 km/h (3 Bft)
03.11.2014 03:12 14,3 C 12,2 C 92 % 1003,9 hPa 0,0 l/m 0 min 2 min 0 W/m 16,7 km/h (3 Bft)
03.11.2014 03:14 14,3 C 12,2 C 92 % 1003,9 hPa 0,0 l/m 0 min 2 min 0 W/m 23,0 km/h (4 Bft)
03.11.2014 03:16 14,3 C 12,2 C 92 % 1003,9 hPa 0,0 l/m 0 min 2 min 0 W/m 25,1 km/h (4 Bft)
03.11.2014 03:18 14,4 C 12,2 C 92 % 1003,9 hPa 0,2 l/m 0 min 2 min 0 W/m 14,6 km/h (3 Bft)
03.11.2014 03:20 14,4 C 12,2 C 92 % 1003,9 hPa 0,0 l/m 0 min 2 min 0 W/m 18,8 km/h (3 Bft)
03.11.2014 03:22 14,4 C 12,2 C 92 % 1003,9 hPa 0,0 l/m 0 min 2 min 0 W/m 18,8 km/h (3 Bft)
03.11.2014 03:24 14,4 C 12,2 C 92 % 1003,9 hPa 0,0 l/m 0 min 2 min 0 W/m 18,8 km/h (3 Bft)
03.11.2014 03:26 14,4 C 12,2 C 92 % 1003,7 hPa 0,0 l/m 0 min 2 min 0 W/m 16,7 km/h (3 Bft)
03.11.2014 03:28 14,4 C 12,2 C 92 % 1003,8 hPa 0,2 l/m 0 min 2 min 0 W/m 20,9 km/h (4 Bft)
03.11.2014 03:30 14,4 C 12,2 C 92 % 1003,9 hPa 0,0 l/m 0 min 2 min 0 W/m 23,0 km/h (4 Bft)
03.11.2014 03:32 14,4 C 12,2 C 92 % 1003,9 hPa 0,0 l/m 0 min 2 min 0 W/m 20,9 km/h (4 Bft)
03.11.2014 03:34 14,4 C 12,2 C 92 % 1003,9 hPa 0,0 l/m 0 min 2 min 0 W/m 16,7 km/h (3 Bft)
03.11.2014 03:36 14,4 C 12,2 C 92 % 1004,0 hPa 0,0 l/m 0 min 2 min 0 W/m 23,0 km/h (4 Bft)
03.11.2014 03:38 14,4 C 12,2 C 92 % 1004,1 hPa 0,0 l/m 0 min 2 min 0 W/m 31,4 km/h (5 Bft)
03.11.2014 03:40 14,4 C 12,2 C 92 % 1004,1 hPa 0,0 l/m 0 min 2 min 0 W/m 31,4 km/h (5 Bft)
03.11.2014 03:42 14,3 C 12,2 C 92 % 1004,1 hPa 0,0 l/m 0 min 2 min 0 W/m 37,7 km/h (5 Bft)
03.11.2014 03:44 14,3 C 12,2 C 92 % 1004,1 hPa 0,0 l/m 0 min 2 min 0 W/m 27,2 km/h (4 Bft)
03.11.2014 03:46 14,3 C 11,7 C 92 % 1004,0 hPa 0,0 l/m 0 min 2 min 0 W/m 20,9 km/h (4 Bft)
03.11.2014 03:48 14,3 C 11,7 C 92 % 1004,1 hPa 0,0 l/m 0 min 2 min 0 W/m 27,2 km/h (4 Bft)
03.11.2014 03:50 14,2 C 11,7 C 92 % 1004,1 hPa 0,0 l/m 0 min 2 min 0 W/m 20,9 km/h (4 Bft)
03.11.2014 03:52 14,2 C 11,7 C 92 % 1004,1 hPa 0,0 l/m 0 min 2 min 0 W/m 27,2 km/h (4 Bft)
03.11.2014 03:54 14,2 C 11,7 C 92 % 1004,1 hPa 0,0 l/m 0 min 2 min 0 W/m 18,8 km/h (3 Bft)
03.11.2014 03:56 14,2 C 11,7 C 92 % 1004,1 hPa 0,0 l/m 0 min 2 min 0 W/m 25,1 km/h (4 Bft)
03.11.2014 03:58 14,2 C 11,7 C 92 % 1004,0 hPa 0,0 l/m 0 min 2 min 0 W/m 20,9 km/h (4 Bft)
03.11.2014 04:00 14,2 C 11,7 C 92 % 1004,1 hPa 0,0 l/m 0 min 2 min 0 W/m 31,4 km/h (5 Bft)
03.11.2014 04:02 14,2 C 11,7 C 92 % 1004,1 hPa 0,0 l/m 0 min 2 min 0 W/m 23,0 km/h (4 Bft)
03.11.2014 04:04 14,2 C 11,7 C 91 % 1004,1 hPa 0,0 l/m 0 min 2 min 0 W/m 27,2 km/h (4 Bft)
03.11.2014 04:06 14,2 C 11,7 C 91 % 1004,1 hPa 0,0 l/m 0 min 2 min 0 W/m 23,0 km/h (4 Bft)
03.11.2014 04:08 14,2 C 11,7 C 91 % 1004,1 hPa 0,0 l/m 0 min 2 min 0 W/m 29,3 km/h (5 Bft)
03.11.2014 04:10 14,1 C 11,7 C 91 % 1004,0 hPa 0,0 l/m 0 min 2 min 0 W/m 35,6 km/h (5 Bft)
03.11.2014 04:12 14,1 C 11,7 C 90 % 1004,0 hPa 0,0 l/m 0 min 2 min 0 W/m 29,3 km/h (5 Bft)
03.11.2014 04:14 14,1 C 11,1 C 90 % 1003,9 hPa 0,0 l/m 0 min 2 min 0 W/m 41,8 km/h (6 Bft)
03.11.2014 04:16 14,1 C 11,1 C 89 % 1003,9 hPa 0,0 l/m 0 min 2 min 0 W/m 25,1 km/h (4 Bft)
03.11.2014 04:18 14,1 C 11,1 C 89 % 1003,9 hPa 0,0 l/m 0 min 2 min 0 W/m 27,2 km/h (4 Bft)
03.11.2014 04:20 14,1 C 11,1 C 89 % 1003,9 hPa 0,0 l/m 0 min 2 min 0 W/m 29,3 km/h (5 Bft)
03.11.2014 04:22 14,0 C 11,1 C 89 % 1004,0 hPa 0,0 l/m 0 min 2 min 0 W/m 37,7 km/h (5 Bft)
03.11.2014 04:24 14,0 C 11,1 C 88 % 1004,0 hPa 0,0 l/m 0 min 2 min 0 W/m 27,2 km/h (4 Bft)
03.11.2014 04:26 14,0 C 11,1 C 88 % 1004,1 hPa 0,0 l/m 0 min 2 min 0 W/m 35,6 km/h (5 Bft)
03.11.2014 04:28 14,0 C 11,1 C 88 % 1004,0 hPa 0,0 l/m 0 min 2 min 0 W/m 35,6 km/h (5 Bft)
03.11.2014 04:30 13,9 C 11,1 C 87 % 1004,0 hPa 0,0 l/m 0 min 2 min 0 W/m 31,4 km/h (5 Bft)
03.11.2014 04:32 13,9 C 11,1 C 87 % 1004,1 hPa 0,0 l/m 0 min 2 min 0 W/m 29,3 km/h (5 Bft)
03.11.2014 04:34 13,9 C 10,6 C 87 % 1004,1 hPa 0,0 l/m 0 min 2 min 0 W/m 29,3 km/h (5 Bft)
03.11.2014 04:36 13,9 C 10,6 C 86 % 1004,1 hPa 0,0 l/m 0 min 2 min 0 W/m 27,2 km/h (4 Bft)
03.11.2014 04:38 13,8 C 10,6 C 86 % 1004,0 hPa 0,0 l/m 0 min 2 min 0 W/m 20,9 km/h (4 Bft)
03.11.2014 04:40 13,8 C 10,6 C 86 % 1004,0 hPa 0,0 l/m 0 min 2 min 0 W/m 20,9 km/h (4 Bft)
03.11.2014 04:42 13,8 C 10,6 C 86 % 1004,0 hPa 0,0 l/m 0 min 2 min 0 W/m 23,0 km/h (4 Bft)
03.11.2014 04:44 13,7 C 10,6 C 86 % 1004,0 hPa 0,0 l/m 0 min 2 min 0 W/m 29,3 km/h (5 Bft)
03.11.2014 04:46 13,7 C 10,6 C 86 % 1004,0 hPa 0,0 l/m 0 min 2 min 0 W/m 23,0 km/h (4 Bft)
03.11.2014 04:48 13,7 C 10,6 C 86 % 1004,0 hPa 0,0 l/m 0 min 2 min 0 W/m 29,3 km/h (5 Bft)
03.11.2014 04:50 13,7 C 10,6 C 86 % 1004,0 hPa 0,0 l/m 0 min 2 min 0 W/m 23,0 km/h (4 Bft)
03.11.2014 04:52 13,6 C 10,6 C 86 % 1004,0 hPa 0,0 l/m 0 min 2 min 0 W/m 31,4 km/h (5 Bft)
03.11.2014 04:54 13,6 C 10,6 C 86 % 1004,0 hPa 0,0 l/m 0 min 2 min 0 W/m 20,9 km/h (4 Bft)
03.11.2014 04:56 13,6 C 10,6 C 86 % 1004,0 hPa 0,0 l/m 0 min 2 min 0 W/m 23,0 km/h (4 Bft)
03.11.2014 04:58 13,6 C 10,6 C 86 % 1003,9 hPa 0,0 l/m 0 min 2 min 0 W/m 16,7 km/h (3 Bft)
03.11.2014 05:00 13,6 C 11,1 C 86 % 1003,9 hPa 0,0 l/m 0 min 2 min 0 W/m 18,8 km/h (3 Bft)
03.11.2014 05:02 13,5 C 11,1 C 86 % 1003,9 hPa 0,0 l/m 0 min 2 min 0 W/m 12,6 km/h (3 Bft)
03.11.2014 05:04 13,5 C 11,1 C 86 % 1003,9 hPa 0,0 l/m 0 min 2 min 0 W/m 20,9 km/h (4 Bft)
03.11.2014 05:06 13,5 C 11,1 C 86 % 1003,9 hPa 0,0 l/m 0 min 2 min 0 W/m 27,2 km/h (4 Bft)
03.11.2014 05:08 13,4 C 10,6 C 86 % 1003,9 hPa 0,0 l/m 0 min 2 min 0 W/m 27,2 km/h (4 Bft)
03.11.2014 05:10 13,4 C 10,6 C 86 % 1003,9 hPa 0,0 l/m 0 min 2 min 0 W/m 18,8 km/h (3 Bft)
03.11.2014 05:12 13,4 C 10,6 C 86 % 1003,9 hPa 0,0 l/m 0 min 2 min 0 W/m 23,0 km/h (4 Bft)
03.11.2014 05:14 13,4 C 10,6 C 86 % 1003,8 hPa 0,0 l/m 0 min 2 min 0 W/m 16,7 km/h (3 Bft)
03.11.2014 05:16 13,4 C 10,6 C 86 % 1003,9 hPa 0,0 l/m 0 min 2 min 0 W/m 23,0 km/h (4 Bft)
03.11.2014 05:18 13,3 C 10,6 C 86 % 1003,9 hPa 0,0 l/m 0 min 2 min 0 W/m 18,8 km/h (3 Bft)
03.11.2014 05:20 13,3 C 10,6 C 86 % 1003,8 hPa 0,0 l/m 0 min 2 min 0 W/m 14,6 km/h (3 Bft)
03.11.2014 05:22 13,3 C 10,6 C 86 % 1003,8 hPa 0,0 l/m 0 min 2 min 0 W/m 16,7 km/h (3 Bft)
03.11.2014 05:24 13,3 C 10,6 C 86 % 1003,8 hPa 0,0 l/m 0 min 2 min 0 W/m 12,6 km/h (3 Bft)
03.11.2014 05:26 13,3 C 10,6 C 86 % 1003,8 hPa 0,0 l/m 0 min 2 min 0 W/m 20,9 km/h (4 Bft)
03.11.2014 05:28 13,2 C 10,6 C 87 % 1003,9 hPa 0,0 l/m 0 min 2 min 0 W/m 20,9 km/h (4 Bft)
03.11.2014 05:30 13,2 C 10,6 C 87 % 1003,8 hPa 0,0 l/m 0 min 2 min 0 W/m 23,0 km/h (4 Bft)
03.11.2014 05:32 13,2 C 10,6 C 87 % 1003,9 hPa 0,0 l/m 0 min 2 min 0 W/m 14,6 km/h (3 Bft)
03.11.2014 05:34 13,2 C 10,6 C 87 % 1003,9 hPa 0,0 l/m 0 min 2 min 0 W/m 18,8 km/h (3 Bft)
03.11.2014 05:36 13,2 C 10,6 C 87 % 1003,8 hPa 0,0 l/m 0 min 2 min 0 W/m 14,6 km/h (3 Bft)
03.11.2014 05:38 13,2 C 10,6 C 87 % 1003,8 hPa 0,0 l/m 0 min 2 min 0 W/m 20,9 km/h (4 Bft)
03.11.2014 05:40 13,2 C 10,6 C 87 % 1003,8 hPa 0,0 l/m 0 min 2 min 0 W/m 6,3 km/h (2 Bft)
03.11.2014 05:42 13,1 C 10,6 C 87 % 1003,8 hPa 0,0 l/m 0 min 2 min 0 W/m 14,6 km/h (3 Bft)
03.11.2014 05:44 13,1 C 10,6 C 87 % 1003,7 hPa 0,0 l/m 0 min 2 min 0 W/m 18,8 km/h (3 Bft)
03.11.2014 05:46 13,1 C 10,6 C 87 % 1003,7 hPa 0,0 l/m 0 min 2 min 0 W/m 18,8 km/h (3 Bft)
03.11.2014 05:48 13,1 C 10,6 C 87 % 1003,7 hPa 0,0 l/m 0 min 2 min 0 W/m 14,6 km/h (3 Bft)
03.11.2014 05:50 13,0 C 10,6 C 87 % 1003,7 hPa 0,0 l/m 0 min 2 min 0 W/m 12,6 km/h (3 Bft)
03.11.2014 05:52 13,0 C 10,6 C 87 % 1003,6 hPa 0,0 l/m 0 min 2 min 0 W/m 16,7 km/h (3 Bft)
03.11.2014 05:54 13,0 C 10,0 C 87 % 1003,6 hPa 0,0 l/m 0 min 2 min 0 W/m 10,5 km/h (2 Bft)
03.11.2014 05:56 12,9 C 10,0 C 87 % 1003,7 hPa 0,0 l/m 0 min 2 min 0 W/m 14,6 km/h (3 Bft)
03.11.2014 05:58 12,9 C 10,0 C 87 % 1003,6 hPa 0,0 l/m 0 min 2 min 0 W/m 10,5 km/h (2 Bft)
03.11.2014 06:00 12,9 C 10,0 C 87 % 1003,7 hPa 0,0 l/m 0 min 0 min 0 W/m 10,5 km/h (2 Bft)
03.11.2014 06:02 12,9 C 10,0 C 87 % 1003,6 hPa 0,0 l/m 0 min 0 min 0 W/m 10,5 km/h (2 Bft)
03.11.2014 06:05 12,8 C 10,0 C 87 % 1003,6 hPa 0,0 l/m 0 min 0 min 0 W/m 10,5 km/h (2 Bft)
03.11.2014 06:08 12,8 C 10,0 C 87 % 1003,6 hPa 0,0 l/m 0 min 0 min 0 W/m 12,6 km/h (3 Bft)
03.11.2014 06:10 12,8 C 10,0 C 88 % 1003,6 hPa 0,0 l/m 0 min 0 min 0 W/m 10,5 km/h (2 Bft)
03.11.2014 06:12 12,8 C 10,0 C 88 % 1003,6 hPa 0,0 l/m 0 min 0 min 0 W/m 14,6 km/h (3 Bft)
03.11.2014 06:14 12,7 C 10,0 C 88 % 1003,6 hPa 0,0 l/m 0 min 0 min 0 W/m 14,6 km/h (3 Bft)
03.11.2014 06:16 12,7 C 10,0 C 88 % 1003,6 hPa 0,0 l/m 0 min 0 min 0 W/m 16,7 km/h (3 Bft)
03.11.2014 06:18 12,7 C 10,0 C 88 % 1003,6 hPa 0,0 l/m 0 min 0 min 0 W/m 20,9 km/h (4 Bft)
03.11.2014 06:20 12,7 C 10,0 C 88 % 1003,6 hPa 0,0 l/m 0 min 0 min 0 W/m 20,9 km/h (4 Bft)
03.11.2014 06:22 12,7 C 10,0 C 88 % 1003,6 hPa 0,0 l/m 0 min 0 min 0 W/m 18,8 km/h (3 Bft)
03.11.2014 06:24 12,7 C 10,6 C 88 % 1003,6 hPa 0,0 l/m 0 min 0 min 0 W/m 16,7 km/h (3 Bft)
03.11.2014 06:26 12,6 C 10,6 C 88 % 1003,6 hPa 0,0 l/m 0 min 0 min 0 W/m 14,6 km/h (3 Bft)
03.11.2014 06:28 12,6 C 10,6 C 89 % 1003,6 hPa 0,0 l/m 0 min 0 min 0 W/m 16,7 km/h (3 Bft)
03.11.2014 06:30 12,6 C 10,6 C 89 % 1003,6 hPa 0,0 l/m 0 min 0 min 0 W/m 14,6 km/h (3 Bft)
03.11.2014 06:32 12,6 C 10,6 C 89 % 1003,6 hPa 0,0 l/m 0 min 0 min 0 W/m 12,6 km/h (3 Bft)
03.11.2014 06:34 12,6 C 10,6 C 89 % 1003,7 hPa 0,0 l/m 0 min 0 min 0 W/m 14,6 km/h (3 Bft)
03.11.2014 06:36 12,6 C 10,6 C 89 % 1003,7 hPa 0,0 l/m 0 min 0 min 0 W/m 16,7 km/h (3 Bft)
03.11.2014 06:38 12,6 C 10,6 C 89 % 1003,7 hPa 0,0 l/m 0 min 0 min 0 W/m 12,6 km/h (3 Bft)
03.11.2014 06:40 12,6 C 10,0 C 89 % 1003,7 hPa 0,0 l/m 0 min 0 min 0 W/m 12,6 km/h (3 Bft)
03.11.2014 06:42 12,5 C 10,0 C 89 % 1003,7 hPa 0,0 l/m 0 min 0 min 0 W/m 12,6 km/h (3 Bft)
03.11.2014 06:44 12,5 C 10,0 C 89 % 1003,7 hPa 0,0 l/m 0 min 0 min 0 W/m 12,6 km/h (3 Bft)
03.11.2014 06:46 12,5 C 10,0 C 89 % 1003,7 hPa 0,0 l/m 0 min 0 min 0 W/m 12,6 km/h (3 Bft)
03.11.2014 06:48 12,5 C 10,0 C 89 % 1003,8 hPa 0,0 l/m 0 min 0 min 0 W/m 12,6 km/h (3 Bft)
03.11.2014 06:50 12,4 C 10,0 C 89 % 1003,7 hPa 0,0 l/m 0 min 0 min 0 W/m 10,5 km/h (2 Bft)
03.11.2014 06:52 12,4 C 10,0 C 89 % 1003,6 hPa 0,0 l/m 0 min 0 min 0 W/m 10,5 km/h (2 Bft)
03.11.2014 06:54 12,4 C 10,0 C 89 % 1003,6 hPa 0,0 l/m 0 min 0 min 0 W/m 16,7 km/h (3 Bft)
03.11.2014 06:56 12,4 C 10,0 C 89 % 1003,6 hPa 0,0 l/m 0 min 0 min 0 W/m 12,6 km/h (3 Bft)
03.11.2014 06:58 12,4 C 10,0 C 89 % 1003,5 hPa 0,0 l/m 0 min 0 min 0 W/m 18,8 km/h (3 Bft)
03.11.2014 07:00 12,4 C 10,0 C 89 % 1003,5 hPa 0,0 l/m 0 min 0 min 0 W/m 18,8 km/h (3 Bft)
03.11.2014 07:02 12,4 C 10,0 C 89 % 1003,6 hPa 0,0 l/m 0 min 0 min 0 W/m 18,8 km/h (3 Bft)
03.11.2014 07:04 12,3 C 10,0 C 90 % 1003,5 hPa 0,0 l/m 0 min 0 min 0 W/m 14,6 km/h (3 Bft)
03.11.2014 07:06 12,3 C 10,0 C 90 % 1003,5 hPa 0,0 l/m 0 min 0 min 0 W/m 10,5 km/h (2 Bft)
03.11.2014 07:08 12,3 C 10,0 C 90 % 1003,5 hPa 0,0 l/m 0 min 0 min 0 W/m 12,6 km/h (3 Bft)
03.11.2014 07:10 12,3 C 10,0 C 90 % 1003,4 hPa 0,0 l/m 0 min 0 min 0 W/m 14,6 km/h (3 Bft)
03.11.2014 07:12 12,3 C 10,0 C 90 % 1003,4 hPa 0,0 l/m 0 min 0 min 0 W/m 18,8 km/h (3 Bft)
03.11.2014 07:14 12,3 C 10,0 C 90 % 1003,3 hPa 0,0 l/m 0 min 0 min 0 W/m 20,9 km/h (4 Bft)
03.11.2014 07:16 12,2 C 10,0 C 90 % 1003,3 hPa 0,0 l/m 0 min 0 min 0 W/m 18,8 km/h (3 Bft)
03.11.2014 07:18 12,3 C 10,0 C 90 % 1003,4 hPa 0,0 l/m 0 min 0 min 0 W/m 12,6 km/h (3 Bft)
03.11.2014 07:20 12,2 C 10,0 C 90 % 1003,4 hPa 0,0 l/m 0 min 0 min 0 W/m 20,9 km/h (4 Bft)
03.11.2014 07:22 12,2 C 10,0 C 90 % 1003,4 hPa 0,0 l/m 0 min 0 min 0 W/m 14,6 km/h (3 Bft)
03.11.2014 07:24 12,2 C 10,0 C 90 % 1003,3 hPa 0,0 l/m 0 min 0 min 0 W/m 16,7 km/h (3 Bft)
03.11.2014 07:26 12,2 C 10,0 C 90 % 1003,4 hPa 0,0 l/m 0 min 0 min 0 W/m 14,6 km/h (3 Bft)
03.11.2014 07:28 12,2 C 10,0 C 89 % 1003,4 hPa 0,0 l/m 0 min 0 min 0 W/m 10,5 km/h (2 Bft)
03.11.2014 07:30 12,2 C 10,0 C 89 % 1003,4 hPa 0,0 l/m 0 min 0 min 0 W/m 20,9 km/h (4 Bft)
03.11.2014 07:32 12,2 C 10,0 C 89 % 1003,4 hPa 0,0 l/m 0 min 0 min 2 W/m 18,8 km/h (3 Bft)
03.11.2014 07:34 12,2 C 10,0 C 89 % 1003,5 hPa 0,0 l/m 0 min 0 min 5 W/m 16,7 km/h (3 Bft)
03.11.2014 07:36 12,2 C 10,0 C 89 % 1003,5 hPa 0,0 l/m 0 min 0 min 6 W/m 27,2 km/h (4 Bft)
03.11.2014 07:38 12,2 C 10,0 C 89 % 1003,4 hPa 0,0 l/m 0 min 0 min 8 W/m 18,8 km/h (3 Bft)
03.11.2014 07:40 12,2 C 10,0 C 89 % 1003,4 hPa 0,0 l/m 0 min 0 min 10 W/m 18,8 km/h (3 Bft)
03.11.2014 07:42 12,2 C 10,0 C 89 % 1003,5 hPa 0,0 l/m 0 min 0 min 12 W/m 20,9 km/h (4 Bft)
03.11.2014 07:44 12,2 C 10,0 C 88 % 1003,5 hPa 0,0 l/m 2 min 0 min 13 W/m 16,7 km/h (3 Bft)
03.11.2014 07:46 12,2 C 10,0 C 88 % 1003,4 hPa 0,0 l/m 2 min 0 min 15 W/m 16,7 km/h (3 Bft)
03.11.2014 07:48 12,2 C 10,0 C 88 % 1003,4 hPa 0,0 l/m 2 min 0 min 16 W/m 27,2 km/h (4 Bft)
03.11.2014 07:50 12,2 C 10,0 C 88 % 1003,4 hPa 0,0 l/m 2 min 0 min 18 W/m 16,7 km/h (3 Bft)
03.11.2014 07:52 12,2 C 10,0 C 88 % 1003,4 hPa 0,0 l/m 2 min 0 min 21 W/m 18,8 km/h (3 Bft)
03.11.2014 07:54 12,2 C 10,0 C 88 % 1003,4 hPa 0,0 l/m 2 min 0 min 24 W/m 14,6 km/h (3 Bft)
03.11.2014 07:56 12,2 C 10,0 C 88 % 1003,4 hPa 0,0 l/m 2 min 0 min 26 W/m 14,6 km/h (3 Bft)
03.11.2014 07:58 12,2 C 10,0 C 88 % 1003,4 hPa 0,0 l/m 2 min 0 min 27 W/m 20,9 km/h (4 Bft)
03.11.2014 08:00 12,2 C 10,0 C 88 % 1003,4 hPa 0,0 l/m 0 min 0 min 28 W/m 25,1 km/h (4 Bft)
03.11.2014 08:02 12,3 C 10,6 C 87 % 1003,4 hPa 0,0 l/m 0 min 0 min 31 W/m 31,4 km/h (5 Bft)
03.11.2014 08:04 12,3 C 10,6 C 87 % 1003,3 hPa 0,0 l/m 0 min 0 min 33 W/m 20,9 km/h (4 Bft)
03.11.2014 08:06 12,3 C 10,6 C 87 % 1003,3 hPa 0,0 l/m 0 min 0 min 35 W/m 27,2 km/h (4 Bft)
03.11.2014 08:08 12,3 C 10,6 C 87 % 1003,3 hPa 0,0 l/m 0 min 0 min 38 W/m 25,1 km/h (4 Bft)
03.11.2014 08:10 12,3 C 10,6 C 86 % 1003,4 hPa 0,0 l/m 2 min 0 min 43 W/m 16,7 km/h (3 Bft)
03.11.2014 08:12 12,3 C 10,6 C 86 % 1003,4 hPa 0,0 l/m 2 min 0 min 47 W/m 20,9 km/h (4 Bft)
03.11.2014 08:14 12,4 C 10,6 C 86 % 1003,4 hPa 0,0 l/m 2 min 0 min 52 W/m 25,1 km/h (4 Bft)
03.11.2014 08:16 12,4 C 10,6 C 86 % 1003,4 hPa 0,0 l/m 2 min 0 min 53 W/m 25,1 km/h (4 Bft)
03.11.2014 08:18 12,4 C 10,6 C 86 % 1003,4 hPa 0,0 l/m 2 min 0 min 54 W/m 16,7 km/h (3 Bft)
03.11.2014 08:20 12,4 C 10,6 C 86 % 1003,3 hPa 0,0 l/m 2 min 0 min 56 W/m 20,9 km/h (4 Bft)
03.11.2014 08:22 12,4 C 10,6 C 86 % 1003,3 hPa 0,0 l/m 2 min 0 min 56 W/m 27,2 km/h (4 Bft)
03.11.2014 08:24 12,4 C 10,6 C 86 % 1003,4 hPa 0,0 l/m 2 min 0 min 58 W/m 20,9 km/h (4 Bft)
03.11.2014 08:26 12,4 C 10,6 C 85 % 1003,3 hPa 0,0 l/m 2 min 0 min 60 W/m 20,9 km/h (4 Bft)
03.11.2014 08:28 12,4 C 10,6 C 85 % 1003,4 hPa 0,0 l/m 2 min 0 min 70 W/m 20,9 km/h (4 Bft)
03.11.2014 08:30 12,5 C 10,6 C 85 % 1003,4 hPa 0,0 l/m 2 min 0 min 79 W/m 23,0 km/h (4 Bft)
03.11.2014 08:32 12,5 C 10,6 C 85 % 1003,3 hPa 0,0 l/m 2 min 0 min 98 W/m 18,8 km/h (3 Bft)
03.11.2014 08:34 12,5 C 10,6 C 85 % 1003,4 hPa 0,0 l/m 2 min 0 min 109 W/m 23,0 km/h (4 Bft)
03.11.2014 08:36 12,5 C 10,6 C 85 % 1003,4 hPa 0,0 l/m 2 min 0 min 121 W/m 29,3 km/h (5 Bft)
03.11.2014 08:38 12,5 C 10,6 C 85 % 1003,4 hPa 0,0 l/m 2 min 0 min 126 W/m 20,9 km/h (4 Bft)
03.11.2014 08:40 12,6 C 10,6 C 85 % 1003,4 hPa 0,0 l/m 2 min 0 min 132 W/m 25,1 km/h (4 Bft)
03.11.2014 08:42 12,6 C 10,6 C 85 % 1003,4 hPa 0,0 l/m 2 min 0 min 124 W/m 20,9 km/h (4 Bft)
03.11.2014 08:44 12,6 C 10,6 C 85 % 1003,5 hPa 0,0 l/m 2 min 0 min 126 W/m 29,3 km/h (5 Bft)
03.11.2014 08:46 12,6 C 10,6 C 85 % 1003,4 hPa 0,0 l/m 2 min 0 min 135 W/m 25,1 km/h (4 Bft)
03.11.2014 08:48 12,6 C 11,1 C 84 % 1003,4 hPa 0,0 l/m 2 min 0 min 133 W/m 27,2 km/h (4 Bft)
03.11.2014 08:50 12,7 C 11,1 C 84 % 1003,4 hPa 0,0 l/m 2 min 0 min 134 W/m 25,1 km/h (4 Bft)
03.11.2014 08:52 12,7 C 11,1 C 84 % 1003,4 hPa 0,0 l/m 2 min 0 min 131 W/m 16,7 km/h (3 Bft)
03.11.2014 08:54 12,7 C 11,1 C 84 % 1003,4 hPa 0,0 l/m 2 min 0 min 92 W/m 23,0 km/h (4 Bft)
03.11.2014 08:56 12,7 C 11,1 C 84 % 1003,4 hPa 0,0 l/m 2 min 0 min 103 W/m 23,0 km/h (4 Bft)
03.11.2014 08:58 12,7 C 11,1 C 84 % 1003,4 hPa 0,0 l/m 2 min 0 min 136 W/m 25,1 km/h (4 Bft)
03.11.2014 09:00 12,8 C 11,7 C 84 % 1003,3 hPa 0,0 l/m 2 min 0 min 134 W/m 20,9 km/h (4 Bft)
03.11.2014 09:02 12,8 C 11,7 C 84 % 1003,3 hPa 0,0 l/m 2 min 0 min 163 W/m 16,7 km/h (3 Bft)
03.11.2014 09:04 12,8 C 11,7 C 84 % 1003,3 hPa 0,0 l/m 2 min 0 min 164 W/m 20,9 km/h (4 Bft)
03.11.2014 09:06 12,8 C 11,7 C 84 % 1003,3 hPa 0,0 l/m 2 min 0 min 196 W/m 25,1 km/h (4 Bft)
03.11.2014 09:08 12,9 C 11,7 C 84 % 1003,2 hPa 0,0 l/m 2 min 0 min 182 W/m 18,8 km/h (3 Bft)
03.11.2014 09:10 12,9 C 11,7 C 84 % 1003,2 hPa 0,0 l/m 2 min 0 min 211 W/m 18,8 km/h (3 Bft)
03.11.2014 09:12 12,9 C 11,7 C 84 % 1003,2 hPa 0,0 l/m 2 min 0 min 207 W/m 20,9 km/h (4 Bft)
03.11.2014 09:14 12,9 C 11,7 C 84 % 1003,2 hPa 0,0 l/m 2 min 0 min 199 W/m 18,8 km/h (3 Bft)
03.11.2014 09:16 13,0 C 12,2 C 84 % 1003,2 hPa 0,0 l/m 2 min 0 min 202 W/m 20,9 km/h (4 Bft)
03.11.2014 09:18 13,1 C 12,2 C 84 % 1003,2 hPa 0,0 l/m 2 min 0 min 191 W/m 25,1 km/h (4 Bft)
03.11.2014 09:20 13,1 C 12,2 C 83 % 1003,2 hPa 0,0 l/m 2 min 0 min 187 W/m 20,9 km/h (4 Bft)
03.11.2014 09:22 13,2 C 12,2 C 83 % 1003,1 hPa 0,0 l/m 2 min 0 min 213 W/m 27,2 km/h (4 Bft)
03.11.2014 09:24 13,2 C 12,2 C 83 % 1003,1 hPa 0,0 l/m 2 min 0 min 219 W/m 18,8 km/h (3 Bft)
03.11.2014 09:26 13,3 C 12,2 C 83 % 1003,1 hPa 0,0 l/m 2 min 0 min 227 W/m 20,9 km/h (4 Bft)
03.11.2014 09:28 13,3 C 12,2 C 83 % 1003,1 hPa 0,0 l/m 2 min 0 min 225 W/m 25,1 km/h (4 Bft)
03.11.2014 09:30 13,4 C 12,2 C 83 % 1003,0 hPa 0,0 l/m 2 min 0 min 232 W/m 23,0 km/h (4 Bft)
03.11.2014 09:32 13,4 C 12,2 C 83 % 1003,0 hPa 0,0 l/m 2 min 0 min 226 W/m 25,1 km/h (4 Bft)
03.11.2014 09:34 13,5 C 12,2 C 83 % 1003,0 hPa 0,0 l/m 2 min 0 min 204 W/m 23,0 km/h (4 Bft)
03.11.2014 09:36 13,6 C 12,2 C 83 % 1003,0 hPa 0,0 l/m 2 min 0 min 214 W/m 29,3 km/h (5 Bft)
03.11.2014 09:38 13,7 C 12,2 C 82 % 1003,0 hPa 0,0 l/m 2 min 0 min 217 W/m 35,6 km/h (5 Bft)
03.11.2014 09:40 13,7 C 12,2 C 82 % 1002,9 hPa 0,0 l/m 2 min 0 min 211 W/m 25,1 km/h (4 Bft)
03.11.2014 09:42 13,8 C 12,2 C 82 % 1002,9 hPa 0,0 l/m 2 min 0 min 230 W/m 27,2 km/h (4 Bft)
03.11.2014 09:44 13,8 C 12,2 C 82 % 1002,9 hPa 0,0 l/m 2 min 0 min 206 W/m 18,8 km/h (3 Bft)
03.11.2014 09:46 13,8 C 12,2 C 82 % 1002,8 hPa 0,0 l/m 2 min 0 min 194 W/m 18,8 km/h (3 Bft)
03.11.2014 09:48 13,9 C 12,2 C 82 % 1002,8 hPa 0,0 l/m 2 min 0 min 185 W/m 29,3 km/h (5 Bft)
03.11.2014 09:50 13,9 C 12,2 C 81 % 1002,7 hPa 0,0 l/m 2 min 0 min 194 W/m 16,7 km/h (3 Bft)
03.11.2014 09:52 14,0 C 12,2 C 81 % 1002,6 hPa 0,0 l/m 2 min 0 min 219 W/m 20,9 km/h (4 Bft)
03.11.2014 09:54 14,1 C 12,2 C 82 % 1002,7 hPa 0,0 l/m 2 min 0 min 242 W/m 18,8 km/h (3 Bft)
03.11.2014 09:56 14,1 C 12,8 C 82 % 1002,7 hPa 0,0 l/m 2 min 0 min 267 W/m 20,9 km/h (4 Bft)
03.11.2014 09:58 14,2 C 12,8 C 81 % 1002,7 hPa 0,0 l/m 2 min 0 min 259 W/m 29,3 km/h (5 Bft)
03.11.2014 10:00 14,2 C 12,8 C 81 % 1002,7 hPa 0,0 l/m 2 min 0 min 262 W/m 16,7 km/h (3 Bft)
03.11.2014 10:02 14,2 C 12,8 C 81 % 1002,7 hPa 0,0 l/m 2 min 0 min 255 W/m 20,9 km/h (4 Bft)
03.11.2014 10:04 14,2 C 12,8 C 81 % 1002,6 hPa 0,0 l/m 2 min 0 min 272 W/m 31,4 km/h (5 Bft)
03.11.2014 10:06 14,2 C 12,8 C 80 % 1002,7 hPa 0,0 l/m 2 min 0 min 257 W/m 33,5 km/h (5 Bft)
03.11.2014 10:08 14,3 C 12,8 C 80 % 1002,6 hPa 0,0 l/m 2 min 0 min 218 W/m 35,6 km/h (5 Bft)
03.11.2014 10:10 14,4 C 12,8 C 80 % 1002,6 hPa 0,0 l/m 2 min 0 min 192 W/m 20,9 km/h (4 Bft)
03.11.2014 10:12 14,4 C 12,8 C 80 % 1002,6 hPa 0,0 l/m 2 min 0 min 213 W/m 18,8 km/h (3 Bft)
03.11.2014 10:14 14,4 C 12,8 C 80 % 1002,6 hPa 0,0 l/m 2 min 0 min 209 W/m 33,5 km/h (5 Bft)
03.11.2014 10:16 14,5 C 12,8 C 79 % 1002,6 hPa 0,0 l/m 2 min 0 min 178 W/m 25,1 km/h (4 Bft)
03.11.2014 10:18 14,6 C 12,8 C 80 % 1002,6 hPa 0,0 l/m 2 min 0 min 198 W/m 20,9 km/h (4 Bft)
03.11.2014 10:20 14,6 C 12,8 C 80 % 1002,6 hPa 0,0 l/m 2 min 0 min 285 W/m 27,2 km/h (4 Bft)
03.11.2014 10:22 14,6 C 12,8 C 80 % 1002,6 hPa 0,0 l/m 2 min 0 min 297 W/m 23,0 km/h (4 Bft)
03.11.2014 10:24 14,7 C 12,8 C 79 % 1002,5 hPa 0,0 l/m 2 min 0 min 184 W/m 23,0 km/h (4 Bft)
03.11.2014 10:26 14,7 C 12,8 C 79 % 1002,6 hPa 0,0 l/m 2 min 0 min 175 W/m 31,4 km/h (5 Bft)
03.11.2014 10:28 14,7 C 13,3 C 78 % 1002,6 hPa 0,0 l/m 2 min 0 min 266 W/m 18,8 km/h (3 Bft)
03.11.2014 10:30 14,8 C 13,3 C 78 % 1002,5 hPa 0,0 l/m 2 min 0 min 185 W/m 14,6 km/h (3 Bft)
03.11.2014 10:32 14,8 C 13,3 C 78 % 1002,5 hPa 0,0 l/m 2 min 0 min 208 W/m 33,5 km/h (5 Bft)
03.11.2014 10:34 14,8 C 13,3 C 78 % 1002,5 hPa 0,0 l/m 2 min 0 min 197 W/m 29,3 km/h (5 Bft)
03.11.2014 10:36 14,8 C 13,3 C 77 % 1002,4 hPa 0,0 l/m 2 min 0 min 217 W/m 23,0 km/h (4 Bft)
03.11.2014 10:38 14,8 C 13,3 C 77 % 1002,5 hPa 0,0 l/m 0 min 0 min 162 W/m 29,3 km/h (5 Bft)
03.11.2014 10:40 14,9 C 13,3 C 77 % 1002,4 hPa 0,0 l/m 0 min 0 min 119 W/m 20,9 km/h (4 Bft)
03.11.2014 10:42 14,9 C 13,3 C 77 % 1002,4 hPa 0,0 l/m 0 min 0 min 99 W/m 29,3 km/h (5 Bft)
03.11.2014 10:44 14,9 C 13,3 C 77 % 1002,5 hPa 0,0 l/m 0 min 0 min 112 W/m 27,2 km/h (4 Bft)
03.11.2014 10:46 14,9 C 13,3 C 76 % 1002,5 hPa 0,0 l/m 0 min 0 min 142 W/m 29,3 km/h (5 Bft)
03.11.2014 10:48 14,9 C 13,3 C 76 % 1002,3 hPa 0,0 l/m 0 min 0 min 168 W/m 31,4 km/h (5 Bft)
03.11.2014 10:50 14,9 C 13,9 C 76 % 1002,3 hPa 0,0 l/m 0 min 0 min 169 W/m 23,0 km/h (4 Bft)
03.11.2014 10:52 14,9 C 13,9 C 76 % 1002,3 hPa 0,0 l/m 0 min 0 min 176 W/m 25,1 km/h (4 Bft)
03.11.2014 10:54 14,9 C 13,9 C 76 % 1002,3 hPa 0,0 l/m 2 min 0 min 187 W/m 27,2 km/h (4 Bft)
03.11.2014 10:56 14,9 C 13,9 C 76 % 1002,3 hPa 0,0 l/m 2 min 0 min 189 W/m 27,2 km/h (4 Bft)
03.11.2014 10:58 14,9 C 13,9 C 76 % 1002,2 hPa 0,0 l/m 0 min 0 min 162 W/m 18,8 km/h (3 Bft)
03.11.2014 11:00 15,0 C 13,9 C 76 % 1002,3 hPa 0,0 l/m 0 min 0 min 154 W/m 37,7 km/h (5 Bft)
03.11.2014 11:02 15,0 C 13,9 C 76 % 1002,3 hPa 0,0 l/m 0 min 0 min 168 W/m 20,9 km/h (4 Bft)
03.11.2014 11:04 15,0 C 13,9 C 77 % 1002,3 hPa 0,0 l/m 0 min 0 min 182 W/m 20,9 km/h (4 Bft)
03.11.2014 11:06 15,0 C 13,9 C 76 % 1002,2 hPa 0,0 l/m 0 min 0 min 163 W/m 29,3 km/h (5 Bft)
03.11.2014 11:08 15,0 C 13,9 C 76 % 1002,1 hPa 0,0 l/m 2 min 0 min 208 W/m 29,3 km/h (5 Bft)
03.11.2014 11:10 15,1 C 13,9 C 76 % 1002,2 hPa 0,0 l/m 2 min 0 min 274 W/m 35,6 km/h (5 Bft)
03.11.2014 11:12 15,1 C 13,9 C 76 % 1001,9 hPa 0,0 l/m 2 min 0 min 212 W/m 37,7 km/h (5 Bft)
03.11.2014 11:14 15,1 C 13,9 C 76 % 1001,8 hPa 0,0 l/m 2 min 0 min 208 W/m 33,5 km/h (5 Bft)
03.11.2014 11:16 15,1 C 13,3 C 76 % 1001,8 hPa 0,0 l/m 0 min 0 min 179 W/m 41,8 km/h (6 Bft)
03.11.2014 11:18 15,2 C 13,3 C 75 % 1001,7 hPa 0,0 l/m 0 min 0 min 143 W/m 31,4 km/h (5 Bft)
03.11.2014 11:20 15,2 C 13,3 C 76 % 1001,6 hPa 0,0 l/m 2 min 0 min 207 W/m 20,9 km/h (4 Bft)
03.11.2014 11:22 15,2 C 13,9 C 75 % 1001,6 hPa 0,0 l/m 2 min 0 min 305 W/m 23,0 km/h (4 Bft)
03.11.2014 11:24 15,2 C 13,9 C 76 % 1001,6 hPa 0,0 l/m 2 min 0 min 272 W/m 20,9 km/h (4 Bft)
03.11.2014 11:26 15,2 C 13,9 C 75 % 1001,6 hPa 0,0 l/m 2 min 0 min 201 W/m 37,7 km/h (5 Bft)
03.11.2014 11:28 15,3 C 13,9 C 75 % 1001,6 hPa 0,0 l/m 2 min 0 min 231 W/m 27,2 km/h (4 Bft)
03.11.2014 11:30 15,3 C 13,9 C 75 % 1001,5 hPa 0,0 l/m 0 min 0 min 176 W/m 25,1 km/h (4 Bft)
03.11.2014 11:32 15,3 C 14,4 C 75 % 1001,5 hPa 0,0 l/m 0 min 0 min 183 W/m 27,2 km/h (4 Bft)
03.11.2014 11:34 15,4 C 14,4 C 75 % 1001,5 hPa 0,0 l/m 2 min 0 min 208 W/m 35,6 km/h (5 Bft)
03.11.2014 11:36 15,4 C 14,4 C 75 % 1001,4 hPa 0,0 l/m 2 min 0 min 235 W/m 27,2 km/h (4 Bft)
03.11.2014 11:38 15,4 C 14,4 C 76 % 1001,3 hPa 0,0 l/m 2 min 0 min 235 W/m 20,9 km/h (4 Bft)
03.11.2014 11:40 15,4 C 15,0 C 76 % 1001,3 hPa 0,0 l/m 2 min 0 min 222 W/m 16,7 km/h (3 Bft)
03.11.2014 11:42 15,5 C 14,4 C 76 % 1001,2 hPa 0,0 l/m 2 min 0 min 201 W/m 29,3 km/h (5 Bft)
03.11.2014 11:44 15,5 C 15,0 C 76 % 1001,2 hPa 0,0 l/m 2 min 0 min 212 W/m 18,8 km/h (3 Bft)
03.11.2014 11:46 15,6 C 15,0 C 76 % 1001,1 hPa 0,0 l/m 2 min 0 min 234 W/m 20,9 km/h (4 Bft)
03.11.2014 11:48 15,6 C 15,0 C 76 % 1001,0 hPa 0,0 l/m 2 min 0 min 255 W/m 25,1 km/h (4 Bft)
03.11.2014 11:50 15,6 C 15,0 C 76 % 1000,9 hPa 0,0 l/m 2 min 0 min 288 W/m 27,2 km/h (4 Bft)
03.11.2014 11:52 15,7 C 15,0 C 76 % 1000,8 hPa 0,0 l/m 2 min 0 min 212 W/m 18,8 km/h (3 Bft)
03.11.2014 11:54 15,7 C 14,4 C 76 % 1000,7 hPa 0,0 l/m 0 min 0 min 167 W/m 20,9 km/h (4 Bft)
03.11.2014 11:56 15,7 C 14,4 C 76 % 1000,6 hPa 0,0 l/m 0 min 0 min 180 W/m 20,9 km/h (4 Bft)
03.11.2014 11:58 15,7 C 14,4 C 76 % 1000,6 hPa 0,0 l/m 0 min 0 min 175 W/m 23,0 km/h (4 Bft)
03.11.2014 12:00 15,7 C 14,4 C 76 % 1000,6 hPa 0,0 l/m 0 min 0 min 170 W/m 18,8 km/h (3 Bft)
03.11.2014 12:03 15,7 C 14,4 C 76 % 1000,5 hPa 0,0 l/m 0 min 0 min 151 W/m 25,1 km/h (4 Bft)
03.11.2014 12:05 15,8 C 14,4 C 76 % 1000,6 hPa 0,0 l/m 0 min 0 min 157 W/m 25,1 km/h (4 Bft)
03.11.2014 12:06 15,8 C 14,4 C 76 % 1000,6 hPa 0,0 l/m 0 min 0 min 124 W/m 10,5 km/h (2 Bft)
03.11.2014 12:08 15,8 C 14,4 C 76 % 1000,5 hPa 0,0 l/m 0 min 0 min 105 W/m 18,8 km/h (3 Bft)
03.11.2014 12:10 15,8 C 14,4 C 76 % 1000,4 hPa 0,0 l/m 0 min 0 min 90 W/m 18,8 km/h (3 Bft)
03.11.2014 12:12 15,8 C 14,4 C 76 % 1000,4 hPa 0,0 l/m 0 min 0 min 84 W/m 31,4 km/h (5 Bft)
03.11.2014 12:14 15,8 C 14,4 C 76 % 1000,3 hPa 0,0 l/m 0 min 0 min 89 W/m 23,0 km/h (4 Bft)
03.11.2014 12:16 15,8 C 14,4 C 76 % 1000,3 hPa 0,0 l/m 0 min 0 min 92 W/m 18,8 km/h (3 Bft)
03.11.2014 12:18 15,8 C 14,4 C 76 % 1000,3 hPa 0,0 l/m 0 min 0 min 94 W/m 23,0 km/h (4 Bft)
03.11.2014 12:20 15,8 C 14,4 C 76 % 1000,3 hPa 0,0 l/m 0 min 0 min 105 W/m 29,3 km/h (5 Bft)
03.11.2014 12:22 15,8 C 14,4 C 76 % 1000,2 hPa 0,0 l/m 0 min 0 min 156 W/m 16,7 km/h (3 Bft)
03.11.2014 12:24 15,8 C 14,4 C 76 % 1000,2 hPa 0,0 l/m 0 min 0 min 159 W/m 29,3 km/h (5 Bft)
03.11.2014 12:26 15,8 C 15,0 C 76 % 1000,1 hPa 0,0 l/m 0 min 0 min 167 W/m 29,3 km/h (5 Bft)
03.11.2014 12:28 15,8 C 15,0 C 76 % 1000,2 hPa 0,0 l/m 0 min 0 min 174 W/m 27,2 km/h (4 Bft)
03.11.2014 12:30 15,8 C 15,0 C 76 % 1000,2 hPa 0,0 l/m 0 min 0 min 166 W/m 27,2 km/h (4 Bft)
03.11.2014 12:32 15,8 C 15,0 C 76 % 1000,1 hPa 0,0 l/m 0 min 0 min 177 W/m 25,1 km/h (4 Bft)
03.11.2014 12:34 15,9 C 15,0 C 76 % 1000,1 hPa 0,0 l/m 0 min 0 min 194 W/m 37,7 km/h (5 Bft)
03.11.2014 12:36 15,9 C 15,0 C 76 % 1000,0 hPa 0,0 l/m 2 min 0 min 206 W/m 33,5 km/h (5 Bft)
03.11.2014 12:38 15,9 C 15,0 C 76 % 999,8 hPa 0,0 l/m 0 min 0 min 197 W/m 27,2 km/h (4 Bft)
03.11.2014 12:40 16,0 C 15,0 C 75 % 999,8 hPa 0,0 l/m 0 min 0 min 194 W/m 31,4 km/h (5 Bft)
03.11.2014 12:42 16,0 C 15,0 C 75 % 999,8 hPa 0,0 l/m 0 min 0 min 195 W/m 31,4 km/h (5 Bft)
03.11.2014 12:44 16,0 C 15,0 C 75 % 999,8 hPa 0,0 l/m 0 min 0 min 188 W/m 29,3 km/h (5 Bft)
03.11.2014 12:46 16,1 C 15,0 C 75 % 999,6 hPa 0,0 l/m 0 min 0 min 180 W/m 20,9 km/h (4 Bft)
03.11.2014 12:48 16,1 C 15,0 C 75 % 999,6 hPa 0,0 l/m 0 min 0 min 178 W/m 27,2 km/h (4 Bft)
03.11.2014 12:50 16,1 C 15,0 C 75 % 999,6 hPa 0,0 l/m 0 min 0 min 171 W/m 27,2 km/h (4 Bft)
03.11.2014 12:52 16,1 C 15,0 C 75 % 999,6 hPa 0,0 l/m 0 min 0 min 163 W/m 18,8 km/h (3 Bft)
03.11.2014 12:54 16,2 C 15,0 C 75 % 999,6 hPa 0,0 l/m 0 min 0 min 157 W/m 18,8 km/h (3 Bft)
03.11.2014 12:56 16,2 C 15,0 C 75 % 999,5 hPa 0,0 l/m 0 min 0 min 142 W/m 29,3 km/h (5 Bft)
03.11.2014 12:58 16,2 C 15,0 C 74 % 999,5 hPa 0,0 l/m 0 min 0 min 133 W/m 31,4 km/h (5 Bft)
03.11.2014 13:00 16,2 C 15,0 C 74 % 999,5 hPa 0,0 l/m 0 min 0 min 133 W/m 29,3 km/h (5 Bft)
03.11.2014 13:02 16,2 C 15,0 C 74 % 999,5 hPa 0,0 l/m 0 min 0 min 132 W/m 23,0 km/h (4 Bft)
03.11.2014 13:04 16,2 C 15,0 C 74 % 999,5 hPa 0,0 l/m 0 min 0 min 143 W/m 16,7 km/h (3 Bft)
03.11.2014 13:06 16,2 C 15,0 C 75 % 999,4 hPa 0,0 l/m 0 min 0 min 144 W/m 20,9 km/h (4 Bft)
03.11.2014 13:08 16,2 C 15,0 C 75 % 999,3 hPa 0,0 l/m 0 min 0 min 132 W/m 25,1 km/h (4 Bft)
03.11.2014 13:10 16,2 C 15,0 C 74 % 999,2 hPa 0,0 l/m 0 min 0 min 123 W/m 31,4 km/h (5 Bft)
03.11.2014 13:12 16,2 C 15,0 C 74 % 999,1 hPa 0,0 l/m 0 min 0 min 117 W/m 41,8 km/h (6 Bft)
03.11.2014 13:14 16,2 C 15,0 C 74 % 998,9 hPa 0,0 l/m 0 min 0 min 109 W/m 37,7 km/h (5 Bft)
03.11.2014 13:16 16,2 C 15,0 C 74 % 998,8 hPa 0,0 l/m 0 min 0 min 102 W/m 25,1 km/h (4 Bft)
03.11.2014 13:18 16,2 C 14,4 C 74 % 998,8 hPa 0,0 l/m 0 min 0 min 98 W/m 23,0 km/h (4 Bft)
03.11.2014 13:20 16,2 C 14,4 C 74 % 998,7 hPa 0,0 l/m 0 min 0 min 99 W/m 14,6 km/h (3 Bft)
03.11.2014 13:22 16,2 C 15,0 C 75 % 998,6 hPa 0,0 l/m 0 min 0 min 105 W/m 25,1 km/h (4 Bft)
03.11.2014 13:24 16,2 C 15,0 C 75 % 998,6 hPa 0,0 l/m 0 min 0 min 109 W/m 14,6 km/h (3 Bft)
03.11.2014 13:26 16,2 C 15,0 C 75 % 998,5 hPa 0,0 l/m 0 min 0 min 109 W/m 23,0 km/h (4 Bft)
03.11.2014 13:28 16,2 C 15,0 C 75 % 998,6 hPa 0,0 l/m 0 min 0 min 105 W/m 31,4 km/h (5 Bft)
03.11.2014 13:30 16,2 C 14,4 C 74 % 998,5 hPa 0,0 l/m 0 min 0 min 104 W/m 37,7 km/h (5 Bft)
03.11.2014 13:32 16,2 C 15,0 C 75 % 998,5 hPa 0,0 l/m 0 min 0 min 105 W/m 20,9 km/h (4 Bft)
03.11.2014 13:34 16,2 C 15,0 C 74 % 998,4 hPa 0,0 l/m 0 min 0 min 106 W/m 23,0 km/h (4 Bft)
03.11.2014 13:36 16,1 C 15,0 C 75 % 998,5 hPa 0,0 l/m 0 min 0 min 103 W/m 29,3 km/h (5 Bft)
03.11.2014 13:38 16,2 C 14,4 C 75 % 998,5 hPa 0,0 l/m 0 min 0 min 96 W/m 29,3 km/h (5 Bft)
03.11.2014 13:40 16,1 C 14,4 C 75 % 998,5 hPa 0,0 l/m 0 min 0 min 94 W/m 31,4 km/h (5 Bft)
03.11.2014 13:42 16,1 C 14,4 C 75 % 998,5 hPa 0,0 l/m 0 min 0 min 98 W/m 27,2 km/h (4 Bft)
03.11.2014 13:44 16,1 C 14,4 C 75 % 998,4 hPa 0,0 l/m 0 min 0 min 96 W/m 35,6 km/h (5 Bft)
03.11.2014 13:46 16,1 C 14,4 C 75 % 998,4 hPa 0,0 l/m 0 min 0 min 91 W/m 20,9 km/h (4 Bft)
03.11.2014 13:48 16,1 C 14,4 C 76 % 998,4 hPa 0,0 l/m 0 min 0 min 85 W/m 29,3 km/h (5 Bft)
03.11.2014 13:50 16,1 C 14,4 C 75 % 998,4 hPa 0,0 l/m 0 min 0 min 76 W/m 33,5 km/h (5 Bft)
03.11.2014 13:52 16,1 C 14,4 C 75 % 998,4 hPa 0,0 l/m 0 min 0 min 69 W/m 41,8 km/h (6 Bft)
03.11.2014 13:54 16,1 C 14,4 C 75 % 998,2 hPa 0,0 l/m 0 min 0 min 72 W/m 29,3 km/h (5 Bft)
03.11.2014 13:56 16,1 C 14,4 C 75 % 998,2 hPa 0,0 l/m 0 min 0 min 78 W/m 23,0 km/h (4 Bft)
03.11.2014 13:58 16,0 C 14,4 C 76 % 998,2 hPa 0,0 l/m 0 min 0 min 82 W/m 31,4 km/h (5 Bft)
03.11.2014 14:00 16,0 C 14,4 C 75 % 998,2 hPa 0,0 l/m 0 min 0 min 83 W/m 23,0 km/h (4 Bft)
03.11.2014 14:02 16,0 C 14,4 C 76 % 998,2 hPa 0,0 l/m 0 min 0 min 82 W/m 20,9 km/h (4 Bft)
03.11.2014 14:04 16,0 C 14,4 C 76 % 998,2 hPa 0,0 l/m 0 min 0 min 79 W/m 20,9 km/h (4 Bft)
03.11.2014 14:06 15,9 C 14,4 C 75 % 998,1 hPa 0,0 l/m 0 min 0 min 76 W/m 27,2 km/h (4 Bft)
03.11.2014 14:08 15,9 C 14,4 C 76 % 998,2 hPa 0,0 l/m 0 min 0 min 72 W/m 31,4 km/h (5 Bft)
03.11.2014 14:10 15,9 C 14,4 C 75 % 998,1 hPa 0,0 l/m 0 min 0 min 71 W/m 33,5 km/h (5 Bft)
03.11.2014 14:12 15,9 C 14,4 C 75 % 998,1 hPa 0,0 l/m 0 min 0 min 75 W/m 41,8 km/h (6 Bft)
03.11.2014 14:14 15,9 C 14,4 C 76 % 997,9 hPa 0,0 l/m 0 min 0 min 76 W/m 23,0 km/h (4 Bft)
03.11.2014 14:16 15,9 C 14,4 C 76 % 997,9 hPa 0,0 l/m 0 min 0 min 74 W/m 29,3 km/h (5 Bft)
03.11.2014 14:18 15,9 C 14,4 C 76 % 997,9 hPa 0,0 l/m 0 min 0 min 70 W/m 23,0 km/h (4 Bft)
03.11.2014 14:20 15,9 C 14,4 C 76 % 997,8 hPa 0,0 l/m 0 min 0 min 67 W/m 25,1 km/h (4 Bft)
03.11.2014 14:22 15,9 C 14,4 C 75 % 997,8 hPa 0,0 l/m 0 min 0 min 63 W/m 31,4 km/h (5 Bft)
03.11.2014 14:24 15,8 C 14,4 C 75 % 997,7 hPa 0,0 l/m 0 min 0 min 60 W/m 33,5 km/h (5 Bft)
03.11.2014 14:26 15,8 C 14,4 C 75 % 997,6 hPa 0,0 l/m 0 min 0 min 55 W/m 31,4 km/h (5 Bft)
03.11.2014 14:28 15,8 C 14,4 C 75 % 997,6 hPa 0,0 l/m 0 min 0 min 53 W/m 31,4 km/h (5 Bft)
03.11.2014 14:30 15,8 C 14,4 C 75 % 997,6 hPa 0,0 l/m 0 min 0 min 54 W/m 31,4 km/h (5 Bft)
03.11.2014 14:32 15,8 C 14,4 C 74 % 997,6 hPa 0,0 l/m 0 min 0 min 56 W/m 25,1 km/h (4 Bft)
03.11.2014 14:34 15,8 C 14,4 C 74 % 997,5 hPa 0,0 l/m 0 min 0 min 56 W/m 27,2 km/h (4 Bft)
03.11.2014 14:36 15,8 C 14,4 C 74 % 997,5 hPa 0,0 l/m 0 min 0 min 61 W/m 35,6 km/h (5 Bft)
03.11.2014 14:38 15,8 C 14,4 C 74 % 997,4 hPa 0,0 l/m 0 min 0 min 63 W/m 23,0 km/h (4 Bft)
03.11.2014 14:40 15,8 C 14,4 C 74 % 997,3 hPa 0,0 l/m 0 min 0 min 63 W/m 20,9 km/h (4 Bft)
03.11.2014 14:42 15,8 C 14,4 C 74 % 997,4 hPa 0,0 l/m 0 min 0 min 63 W/m 14,6 km/h (3 Bft)
03.11.2014 14:44 15,8 C 14,4 C 75 % 997,2 hPa 0,0 l/m 0 min 0 min 64 W/m 18,8 km/h (3 Bft)
03.11.2014 14:46 15,8 C 14,4 C 75 % 997,3 hPa 0,0 l/m 0 min 0 min 76 W/m 25,1 km/h (4 Bft)
03.11.2014 14:48 15,8 C 14,4 C 75 % 997,2 hPa 0,0 l/m 0 min 0 min 91 W/m 20,9 km/h (4 Bft)
03.11.2014 14:50 15,8 C 14,4 C 75 % 997,2 hPa 0,0 l/m 0 min 0 min 93 W/m 27,2 km/h (4 Bft)
03.11.2014 14:52 15,8 C 14,4 C 75 % 997,2 hPa 0,0 l/m 0 min 0 min 94 W/m 31,4 km/h (5 Bft)
03.11.2014 14:54 15,8 C 14,4 C 75 % 997,2 hPa 0,0 l/m 0 min 0 min 88 W/m 33,5 km/h (5 Bft)
03.11.2014 14:56 15,8 C 14,4 C 75 % 997,2 hPa 0,0 l/m 0 min 0 min 73 W/m 27,2 km/h (4 Bft)
03.11.2014 14:58 15,8 C 14,4 C 75 % 997,3 hPa 0,0 l/m 0 min 0 min 62 W/m 25,1 km/h (4 Bft)
03.11.2014 15:00 15,8 C 14,4 C 75 % 997,2 hPa 0,0 l/m 0 min 0 min 57 W/m 20,9 km/h (4 Bft)
03.11.2014 15:02 15,8 C 13,9 C 75 % 997,1 hPa 0,0 l/m 0 min 0 min 53 W/m 33,5 km/h (5 Bft)
03.11.2014 15:04 15,8 C 13,9 C 74 % 997,1 hPa 0,0 l/m 0 min 0 min 53 W/m 23,0 km/h (4 Bft)
03.11.2014 15:06 15,8 C 13,9 C 74 % 997,0 hPa 0,0 l/m 0 min 0 min 54 W/m 31,4 km/h (5 Bft)
03.11.2014 15:08 15,8 C 13,9 C 74 % 996,9 hPa 0,0 l/m 0 min 0 min 55 W/m 35,6 km/h (5 Bft)
03.11.2014 15:10 15,8 C 14,4 C 74 % 997,0 hPa 0,0 l/m 0 min 0 min 57 W/m 25,1 km/h (4 Bft)
03.11.2014 15:12 15,8 C 14,4 C 74 % 996,9 hPa 0,0 l/m 0 min 0 min 62 W/m 23,0 km/h (4 Bft)
03.11.2014 15:14 15,8 C 14,4 C 74 % 996,9 hPa 0,0 l/m 0 min 0 min 69 W/m 23,0 km/h (4 Bft)
03.11.2014 15:16 15,8 C 14,4 C 73 % 997,0 hPa 0,0 l/m 0 min 0 min 74 W/m 20,9 km/h (4 Bft)
03.11.2014 15:18 15,8 C 14,4 C 73 % 996,9 hPa 0,0 l/m 0 min 0 min 76 W/m 31,4 km/h (5 Bft)
03.11.2014 15:20 15,8 C 14,4 C 72 % 996,9 hPa 0,0 l/m 0 min 0 min 73 W/m 31,4 km/h (5 Bft)
03.11.2014 15:22 15,8 C 14,4 C 72 % 996,9 hPa 0,0 l/m 0 min 0 min 71 W/m 29,3 km/h (5 Bft)
03.11.2014 15:24 15,8 C 14,4 C 71 % 996,9 hPa 0,0 l/m 0 min 0 min 70 W/m 35,6 km/h (5 Bft)
03.11.2014 15:26 15,8 C 14,4 C 70 % 996,9 hPa 0,0 l/m 0 min 0 min 71 W/m 39,7 km/h (6 Bft)
03.11.2014 15:28 15,8 C 14,4 C 70 % 996,9 hPa 0,0 l/m 0 min 0 min 72 W/m 25,1 km/h (4 Bft)
03.11.2014 15:30 15,9 C 14,4 C 69 % 996,9 hPa 0,0 l/m 0 min 0 min 72 W/m 35,6 km/h (5 Bft)
03.11.2014 15:32 15,9 C 14,4 C 69 % 996,9 hPa 0,0 l/m 0 min 0 min 69 W/m 27,2 km/h (4 Bft)
03.11.2014 15:34 15,9 C 14,4 C 69 % 996,9 hPa 0,0 l/m 0 min 0 min 66 W/m 37,7 km/h (5 Bft)
03.11.2014 15:36 15,9 C 14,4 C 68 % 996,9 hPa 0,0 l/m 0 min 0 min 67 W/m 33,5 km/h (5 Bft)
03.11.2014 15:38 15,9 C 14,4 C 68 % 996,7 hPa 0,0 l/m 0 min 0 min 69 W/m 25,1 km/h (4 Bft)
03.11.2014 15:40 15,9 C 14,4 C 68 % 996,8 hPa 0,0 l/m 0 min 0 min 65 W/m 35,6 km/h (5 Bft)
03.11.2014 15:42 16,0 C 14,4 C 68 % 996,7 hPa 0,0 l/m 0 min 0 min 57 W/m 27,2 km/h (4 Bft)
03.11.2014 15:44 16,0 C 14,4 C 68 % 996,8 hPa 0,0 l/m 0 min 0 min 54 W/m 23,0 km/h (4 Bft)
03.11.2014 15:46 16,0 C 14,4 C 68 % 996,7 hPa 0,0 l/m 0 min 0 min 50 W/m 20,9 km/h (4 Bft)
03.11.2014 15:48 16,0 C 14,4 C 68 % 996,7 hPa 0,0 l/m 0 min 0 min 46 W/m 29,3 km/h (5 Bft)
03.11.2014 15:50 16,0 C 13,9 C 68 % 996,6 hPa 0,0 l/m 0 min 0 min 41 W/m 31,4 km/h (5 Bft)
03.11.2014 15:52 16,0 C 13,9 C 68 % 996,6 hPa 0,0 l/m 0 min 0 min 38 W/m 33,5 km/h (5 Bft)
03.11.2014 15:54 15,9 C 13,9 C 68 % 996,6 hPa 0,0 l/m 0 min 0 min 36 W/m 29,3 km/h (5 Bft)
03.11.2014 15:56 15,9 C 13,9 C 68 % 996,6 hPa 0,0 l/m 0 min 0 min 34 W/m 43,9 km/h (6 Bft)
03.11.2014 15:58 15,9 C 13,9 C 68 % 996,6 hPa 0,0 l/m 0 min 0 min 31 W/m 18,8 km/h (3 Bft)
03.11.2014 16:00 15,9 C 13,9 C 68 % 996,6 hPa 0,0 l/m 0 min 0 min 26 W/m 29,3 km/h (5 Bft)
03.11.2014 16:02 15,9 C 13,9 C 68 % 996,6 hPa 0,0 l/m 0 min 0 min 23 W/m 33,5 km/h (5 Bft)
03.11.2014 16:04 15,9 C 13,9 C 68 % 996,6 hPa 0,0 l/m 0 min 0 min 19 W/m 25,1 km/h (4 Bft)
03.11.2014 16:06 15,9 C 13,9 C 68 % 996,6 hPa 0,0 l/m 0 min 0 min 19 W/m 16,7 km/h (3 Bft)
03.11.2014 16:08 15,9 C 13,9 C 69 % 996,5 hPa 0,0 l/m 0 min 0 min 18 W/m 20,9 km/h (4 Bft)
03.11.2014 16:10 15,9 C 13,9 C 69 % 996,5 hPa 0,0 l/m 0 min 0 min 15 W/m 23,0 km/h (4 Bft)
03.11.2014 16:12 15,9 C 13,9 C 69 % 996,5 hPa 0,0 l/m 0 min 0 min 12 W/m 31,4 km/h (5 Bft)
03.11.2014 16:14 15,9 C 13,9 C 69 % 996,5 hPa 0,0 l/m 0 min 0 min 13 W/m 25,1 km/h (4 Bft)
03.11.2014 16:16 15,9 C 13,9 C 69 % 996,5 hPa 0,0 l/m 0 min 0 min 14 W/m 50,2 km/h (7 Bft)
03.11.2014 16:18 15,9 C 13,9 C 69 % 996,4 hPa 0,0 l/m 0 min 0 min 14 W/m 37,7 km/h (5 Bft)
03.11.2014 16:20 15,8 C 13,9 C 69 % 996,4 hPa 0,0 l/m 0 min 0 min 13 W/m 33,5 km/h (5 Bft)
03.11.2014 16:22 15,8 C 13,9 C 69 % 996,2 hPa 0,0 l/m 0 min 0 min 11 W/m 33,5 km/h (5 Bft)
03.11.2014 16:24 15,8 C 13,9 C 70 % 996,2 hPa 0,0 l/m 0 min 0 min 12 W/m 20,9 km/h (4 Bft)
03.11.2014 16:26 15,8 C 13,9 C 70 % 996,1 hPa 0,0 l/m 0 min 0 min 12 W/m 23,0 km/h (4 Bft)
03.11.2014 16:28 15,8 C 13,9 C 70 % 996,1 hPa 0,0 l/m 0 min 0 min 12 W/m 27,2 km/h (4 Bft)
03.11.2014 16:30 15,8 C 13,9 C 71 % 996,2 hPa 0,0 l/m 0 min 0 min 12 W/m 25,1 km/h (4 Bft)
03.11.2014 16:32 15,7 C 13,9 C 71 % 996,1 hPa 0,0 l/m 0 min 0 min 11 W/m 35,6 km/h (5 Bft)
03.11.2014 16:34 15,7 C 13,9 C 71 % 996,1 hPa 0,0 l/m 0 min 0 min 11 W/m 23,0 km/h (4 Bft)
03.11.2014 16:36 15,7 C 13,9 C 71 % 996,0 hPa 0,0 l/m 0 min 0 min 10 W/m 23,0 km/h (4 Bft)
03.11.2014 16:38 15,7 C 13,3 C 72 % 995,9 hPa 0,0 l/m 0 min 0 min 7 W/m 20,9 km/h (4 Bft)
03.11.2014 16:40 15,6 C 13,3 C 72 % 996,0 hPa 0,0 l/m 0 min 0 min 7 W/m 29,3 km/h (5 Bft)
03.11.2014 16:42 15,6 C 13,3 C 73 % 995,9 hPa 0,0 l/m 0 min 0 min 7 W/m 39,7 km/h (6 Bft)
03.11.2014 16:44 15,6 C 13,3 C 73 % 995,9 hPa 0,0 l/m 0 min 0 min 5 W/m 31,4 km/h (5 Bft)
03.11.2014 16:46 15,5 C 13,3 C 73 % 995,9 hPa 0,0 l/m 0 min 0 min 5 W/m 23,0 km/h (4 Bft)
03.11.2014 16:48 15,5 C 13,3 C 73 % 995,8 hPa 0,0 l/m 0 min 0 min 5 W/m 29,3 km/h (5 Bft)
03.11.2014 16:50 15,4 C 13,3 C 74 % 995,8 hPa 0,0 l/m 0 min 0 min 3 W/m 27,2 km/h (4 Bft)
03.11.2014 16:52 15,4 C 13,3 C 74 % 995,8 hPa 0,0 l/m 0 min 0 min 0 W/m 27,2 km/h (4 Bft)
03.11.2014 16:54 15,4 C 13,3 C 74 % 995,8 hPa 0,0 l/m 0 min 0 min 0 W/m 27,2 km/h (4 Bft)
03.11.2014 16:56 15,3 C 13,3 C 75 % 995,6 hPa 0,0 l/m 0 min 0 min 0 W/m 27,2 km/h (4 Bft)
03.11.2014 16:58 15,3 C 13,3 C 75 % 995,5 hPa 0,0 l/m 0 min 0 min 0 W/m 20,9 km/h (4 Bft)
03.11.2014 17:00 15,3 C 13,3 C 75 % 995,6 hPa 0,0 l/m 0 min 0 min 0 W/m 25,1 km/h (4 Bft)
03.11.2014 17:02 15,2 C 13,3 C 75 % 995,6 hPa 0,0 l/m 0 min 0 min 0 W/m 33,5 km/h (5 Bft)
03.11.2014 17:04 15,2 C 13,3 C 75 % 995,6 hPa 0,0 l/m 0 min 0 min 0 W/m 23,0 km/h (4 Bft)
03.11.2014 17:06 15,2 C 13,3 C 75 % 995,5 hPa 0,0 l/m 0 min 0 min 0 W/m 27,2 km/h (4 Bft)
03.11.2014 17:08 15,2 C 13,3 C 76 % 995,4 hPa 0,0 l/m 0 min 0 min 0 W/m 31,4 km/h (5 Bft)
03.11.2014 17:10 15,2 C 13,3 C 76 % 995,5 hPa 0,0 l/m 0 min 0 min 0 W/m 33,5 km/h (5 Bft)
03.11.2014 17:12 15,1 C 13,3 C 76 % 995,4 hPa 0,0 l/m 0 min 0 min 0 W/m 33,5 km/h (5 Bft)
03.11.2014 17:14 15,1 C 13,3 C 76 % 995,5 hPa 0,0 l/m 0 min 0 min 0 W/m 31,4 km/h (5 Bft)
03.11.2014 17:16 15,1 C 13,3 C 77 % 995,5 hPa 0,0 l/m 0 min 0 min 0 W/m 27,2 km/h (4 Bft)
03.11.2014 17:18 15,1 C 13,3 C 77 % 995,4 hPa 0,0 l/m 0 min 0 min 0 W/m 23,0 km/h (4 Bft)
03.11.2014 17:20 15,1 C 13,3 C 77 % 995,5 hPa 0,0 l/m 0 min 0 min 0 W/m 35,6 km/h (5 Bft)
03.11.2014 17:22 15,1 C 13,3 C 77 % 995,4 hPa 0,0 l/m 0 min 0 min 0 W/m 29,3 km/h (5 Bft)
03.11.2014 17:24 15,1 C 13,3 C 77 % 995,5 hPa 0,0 l/m 0 min 0 min 0 W/m 25,1 km/h (4 Bft)
03.11.2014 17:26 15,1 C 13,3 C 78 % 995,3 hPa 0,0 l/m 0 min 0 min 0 W/m 29,3 km/h (5 Bft)
03.11.2014 17:28 15,0 C 13,3 C 78 % 995,5 hPa 0,0 l/m 0 min 0 min 0 W/m 23,0 km/h (4 Bft)
03.11.2014 17:30 15,0 C 13,3 C 78 % 995,4 hPa 0,0 l/m 0 min 0 min 0 W/m 35,6 km/h (5 Bft)
03.11.2014 17:32 15,0 C 13,3 C 78 % 995,4 hPa 0,0 l/m 0 min 0 min 0 W/m 23,0 km/h (4 Bft)
03.11.2014 17:34 15,0 C 12,8 C 79 % 995,4 hPa 0,0 l/m 0 min 0 min 0 W/m 27,2 km/h (4 Bft)
03.11.2014 17:36 15,0 C 12,8 C 79 % 995,7 hPa 0,0 l/m 0 min 0 min 0 W/m 31,4 km/h (5 Bft)
03.11.2014 17:38 15,0 C 11,7 C 80 % 995,8 hPa 0,2 l/m 0 min 2 min 0 W/m 37,7 km/h (5 Bft)
03.11.2014 17:40 14,9 C 11,7 C 81 % 995,7 hPa 0,0 l/m 0 min 2 min 0 W/m 41,8 km/h (6 Bft)
03.11.2014 17:42 14,9 C 11,1 C 82 % 995,7 hPa 0,0 l/m 0 min 2 min 0 W/m 27,2 km/h (4 Bft)
03.11.2014 17:44 14,8 C 11,1 C 83 % 995,5 hPa 0,0 l/m 0 min 2 min 0 W/m 37,7 km/h (5 Bft)
03.11.2014 17:46 14,7 C 11,1 C 83 % 995,5 hPa 0,0 l/m 0 min 2 min 0 W/m 29,3 km/h (5 Bft)
03.11.2014 17:48 14,6 C 11,1 C 84 % 995,4 hPa 0,0 l/m 0 min 2 min 0 W/m 27,2 km/h (4 Bft)
03.11.2014 17:50 14,5 C 11,1 C 84 % 995,4 hPa 0,0 l/m 0 min 2 min 0 W/m 31,4 km/h (5 Bft)
03.11.2014 17:52 14,4 C 11,1 C 85 % 995,5 hPa 0,0 l/m 0 min 2 min 0 W/m 23,0 km/h (4 Bft)
03.11.2014 17:54 14,3 C 11,1 C 85 % 995,5 hPa 0,0 l/m 0 min 2 min 0 W/m 33,5 km/h (5 Bft)
03.11.2014 17:56 14,2 C 11,1 C 85 % 995,5 hPa 0,0 l/m 0 min 2 min 0 W/m 29,3 km/h (5 Bft)
03.11.2014 17:58 14,2 C 11,1 C 86 % 995,6 hPa 0,0 l/m 0 min 2 min 0 W/m 27,2 km/h (4 Bft)
03.11.2014 18:00 14,2 C 11,1 C 86 % 995,6 hPa 0,0 l/m 0 min 2 min 0 W/m 27,2 km/h (4 Bft)
03.11.2014 18:02 14,1 C 11,1 C 86 % 995,5 hPa 0,0 l/m 0 min 2 min 0 W/m 46,0 km/h (6 Bft)
03.11.2014 18:05 13,9 C 11,1 C 87 % 995,4 hPa 0,0 l/m 0 min 2 min 0 W/m 33,5 km/h (5 Bft)
03.11.2014 18:08 13,9 C 11,1 C 87 % 995,5 hPa 0,2 l/m 0 min 2 min 0 W/m 33,5 km/h (5 Bft)
03.11.2014 18:10 13,8 C 11,1 C 87 % 995,5 hPa 0,0 l/m 0 min 2 min 0 W/m 23,0 km/h (4 Bft)
03.11.2014 18:12 13,8 C 11,1 C 87 % 995,4 hPa 0,0 l/m 0 min 2 min 0 W/m 25,1 km/h (4 Bft)
03.11.2014 18:14 13,8 C 11,1 C 87 % 995,4 hPa 0,0 l/m 0 min 2 min 0 W/m 23,0 km/h (4 Bft)
03.11.2014 18:16 13,8 C 11,1 C 88 % 995,4 hPa 0,0 l/m 0 min 2 min 0 W/m 37,7 km/h (5 Bft)
03.11.2014 18:18 13,7 C 11,1 C 88 % 995,3 hPa 0,0 l/m 0 min 2 min 0 W/m 25,1 km/h (4 Bft)
03.11.2014 18:20 13,7 C 11,1 C 88 % 995,4 hPa 0,0 l/m 0 min 2 min 0 W/m 18,8 km/h (3 Bft)
03.11.2014 18:22 13,7 C 11,1 C 88 % 995,3 hPa 0,0 l/m 0 min 2 min 0 W/m 37,7 km/h (5 Bft)
03.11.2014 18:24 13,7 C 11,1 C 88 % 995,3 hPa 0,0 l/m 0 min 2 min 0 W/m 27,2 km/h (4 Bft)
03.11.2014 18:26 13,7 C 11,1 C 88 % 995,3 hPa 0,0 l/m 0 min 2 min 0 W/m 29,3 km/h (5 Bft)
03.11.2014 18:28 13,7 C 11,1 C 87 % 995,3 hPa 0,0 l/m 0 min 2 min 0 W/m 23,0 km/h (4 Bft)
03.11.2014 18:30 13,7 C 11,1 C 87 % 995,3 hPa 0,0 l/m 0 min 2 min 0 W/m 25,1 km/h (4 Bft)
03.11.2014 18:32 13,7 C 11,1 C 87 % 995,3 hPa 0,0 l/m 0 min 2 min 0 W/m 33,5 km/h (5 Bft)
03.11.2014 18:34 13,7 C 11,7 C 87 % 995,4 hPa 0,0 l/m 0 min 2 min 0 W/m 29,3 km/h (5 Bft)
03.11.2014 18:36 13,7 C 11,7 C 87 % 995,2 hPa 0,0 l/m 0 min 2 min 0 W/m 33,5 km/h (5 Bft)
03.11.2014 18:38 13,8 C 11,7 C 86 % 995,3 hPa 0,0 l/m 0 min 2 min 0 W/m 25,1 km/h (4 Bft)
03.11.2014 18:40 13,8 C 11,7 C 86 % 995,3 hPa 0,0 l/m 0 min 2 min 0 W/m 25,1 km/h (4 Bft)
03.11.2014 18:42 13,8 C 11,7 C 86 % 995,3 hPa 0,0 l/m 0 min 2 min 0 W/m 33,5 km/h (5 Bft)
03.11.2014 18:44 13,9 C 11,7 C 85 % 995,2 hPa 0,0 l/m 0 min 2 min 0 W/m 20,9 km/h (4 Bft)
03.11.2014 18:46 13,9 C 11,7 C 85 % 995,3 hPa 0,0 l/m 0 min 2 min 0 W/m 23,0 km/h (4 Bft)
03.11.2014 18:48 13,9 C 11,7 C 85 % 995,3 hPa 0,0 l/m 0 min 2 min 0 W/m 33,5 km/h (5 Bft)
03.11.2014 18:50 13,9 C 11,7 C 85 % 995,2 hPa 0,0 l/m 0 min 2 min 0 W/m 29,3 km/h (5 Bft)
03.11.2014 18:52 14,0 C 11,7 C 85 % 995,3 hPa 0,0 l/m 0 min 2 min 0 W/m 20,9 km/h (4 Bft)
03.11.2014 18:54 14,0 C 11,7 C 85 % 995,3 hPa 0,0 l/m 0 min 2 min 0 W/m 16,7 km/h (3 Bft)
03.11.2014 18:56 14,0 C 11,7 C 85 % 995,3 hPa 0,0 l/m 0 min 2 min 0 W/m 14,6 km/h (3 Bft)
03.11.2014 18:58 14,1 C 11,7 C 85 % 995,3 hPa 0,0 l/m 0 min 2 min 0 W/m 31,4 km/h (5 Bft)
03.11.2014 19:00 14,1 C 11,7 C 85 % 995,2 hPa 0,0 l/m 0 min 2 min 0 W/m 18,8 km/h (3 Bft)
03.11.2014 19:02 14,1 C 11,7 C 85 % 995,2 hPa 0,0 l/m 0 min 2 min 0 W/m 20,9 km/h (4 Bft)
03.11.2014 19:04 14,1 C 11,7 C 85 % 995,3 hPa 0,0 l/m 0 min 2 min 0 W/m 20,9 km/h (4 Bft)
03.11.2014 19:06 14,1 C 11,7 C 85 % 995,3 hPa 0,0 l/m 0 min 2 min 0 W/m 23,0 km/h (4 Bft)
03.11.2014 19:08 14,1 C 11,1 C 85 % 995,3 hPa 0,0 l/m 0 min 2 min 0 W/m 20,9 km/h (4 Bft)
03.11.2014 19:10 14,1 C 11,1 C 86 % 995,4 hPa 0,0 l/m 0 min 2 min 0 W/m 25,1 km/h (4 Bft)
03.11.2014 19:12 14,1 C 11,1 C 86 % 995,3 hPa 0,0 l/m 0 min 2 min 0 W/m 23,0 km/h (4 Bft)
03.11.2014 19:14 14,0 C 11,1 C 86 % 995,3 hPa 0,2 l/m 0 min 2 min 0 W/m 18,8 km/h (3 Bft)
03.11.2014 19:16 14,0 C 11,1 C 86 % 995,2 hPa 0,0 l/m 0 min 2 min 0 W/m 23,0 km/h (4 Bft)
03.11.2014 19:18 13,9 C 11,1 C 87 % 995,2 hPa 0,0 l/m 0 min 2 min 0 W/m 27,2 km/h (4 Bft)
03.11.2014 19:20 13,9 C 11,1 C 87 % 995,2 hPa 0,0 l/m 0 min 2 min 0 W/m 27,2 km/h (4 Bft)
03.11.2014 19:22 13,9 C 11,1 C 87 % 995,1 hPa 0,0 l/m 0 min 2 min 0 W/m 20,9 km/h (4 Bft)
03.11.2014 19:24 13,8 C 11,1 C 87 % 995,2 hPa 0,0 l/m 0 min 2 min 0 W/m 27,2 km/h (4 Bft)
03.11.2014 19:26 13,8 C 11,1 C 88 % 995,2 hPa 0,0 l/m 0 min 2 min 0 W/m 23,0 km/h (4 Bft)
03.11.2014 19:28 13,8 C 11,1 C 88 % 995,1 hPa 0,0 l/m 0 min 2 min 0 W/m 23,0 km/h (4 Bft)
03.11.2014 19:30 13,7 C 11,1 C 88 % 995,0 hPa 0,0 l/m 0 min 2 min 0 W/m 27,2 km/h (4 Bft)
03.11.2014 19:32 13,7 C 11,1 C 88 % 995,0 hPa 0,0 l/m 0 min 2 min 0 W/m 25,1 km/h (4 Bft)
03.11.2014 19:34 13,7 C 11,1 C 88 % 995,1 hPa 0,0 l/m 0 min 2 min 0 W/m 31,4 km/h (5 Bft)
03.11.2014 19:36 13,6 C 11,1 C 88 % 995,0 hPa 0,0 l/m 0 min 2 min 0 W/m 33,5 km/h (5 Bft)
03.11.2014 19:38 13,6 C 11,1 C 89 % 995,0 hPa 0,0 l/m 0 min 2 min 0 W/m 35,6 km/h (5 Bft)
03.11.2014 19:40 13,6 C 11,1 C 89 % 994,9 hPa 0,0 l/m 0 min 2 min 0 W/m 35,6 km/h (5 Bft)
03.11.2014 19:42 13,6 C 11,1 C 89 % 994,9 hPa 0,0 l/m 0 min 2 min 0 W/m 33,5 km/h (5 Bft)
03.11.2014 19:44 13,6 C 11,1 C 88 % 994,9 hPa 0,0 l/m 0 min 2 min 0 W/m 25,1 km/h (4 Bft)
03.11.2014 19:46 13,6 C 11,1 C 88 % 994,9 hPa 0,0 l/m 0 min 2 min 0 W/m 20,9 km/h (4 Bft)
03.11.2014 19:48 13,6 C 11,1 C 88 % 994,9 hPa 0,0 l/m 0 min 2 min 0 W/m 33,5 km/h (5 Bft)
03.11.2014 19:50 13,6 C 11,1 C 88 % 994,8 hPa 0,0 l/m 0 min 2 min 0 W/m 25,1 km/h (4 Bft)
03.11.2014 19:52 13,6 C 11,1 C 88 % 994,6 hPa 0,0 l/m 0 min 2 min 0 W/m 27,2 km/h (4 Bft)
03.11.2014 19:54 13,6 C 11,1 C 88 % 994,6 hPa 0,0 l/m 0 min 2 min 0 W/m 39,7 km/h (6 Bft)
03.11.2014 19:56 13,6 C 11,1 C 88 % 994,6 hPa 0,0 l/m 0 min 2 min 0 W/m 27,2 km/h (4 Bft)
03.11.2014 19:58 13,6 C 11,1 C 88 % 994,6 hPa 0,0 l/m 0 min 2 min 0 W/m 23,0 km/h (4 Bft)
03.11.2014 20:00 13,6 C 11,1 C 88 % 994,6 hPa 0,0 l/m 0 min 2 min 0 W/m 18,8 km/h (3 Bft)
03.11.2014 20:02 13,6 C 11,1 C 88 % 994,5 hPa 0,0 l/m 0 min 2 min 0 W/m 23,0 km/h (4 Bft)
03.11.2014 20:04 13,6 C 11,1 C 88 % 994,4 hPa 0,0 l/m 0 min 2 min 0 W/m 20,9 km/h (4 Bft)
03.11.2014 20:06 13,6 C 11,1 C 87 % 994,4 hPa 0,0 l/m 0 min 2 min 0 W/m 33,5 km/h (5 Bft)
03.11.2014 20:08 13,6 C 11,1 C 87 % 994,4 hPa 0,0 l/m 0 min 2 min 0 W/m 27,2 km/h (4 Bft)
03.11.2014 20:10 13,6 C 11,1 C 87 % 994,3 hPa 0,0 l/m 0 min 2 min 0 W/m 35,6 km/h (5 Bft)
03.11.2014 20:12 13,6 C 11,1 C 87 % 994,4 hPa 0,0 l/m 0 min 2 min 0 W/m 20,9 km/h (4 Bft)
03.11.2014 20:14 13,7 C 11,1 C 87 % 994,3 hPa 0,0 l/m 0 min 2 min 0 W/m 23,0 km/h (4 Bft)
03.11.2014 20:16 13,7 C 11,1 C 87 % 994,3 hPa 0,0 l/m 0 min 2 min 0 W/m 23,0 km/h (4 Bft)
03.11.2014 20:18 13,7 C 11,1 C 87 % 994,2 hPa 0,0 l/m 0 min 0 min 0 W/m 23,0 km/h (4 Bft)
03.11.2014 20:20 13,7 C 11,1 C 87 % 994,1 hPa 0,0 l/m 0 min 0 min 0 W/m 16,7 km/h (3 Bft)
03.11.2014 20:22 13,7 C 11,1 C 87 % 994,1 hPa 0,0 l/m 0 min 0 min 0 W/m 25,1 km/h (4 Bft)
03.11.2014 20:24 13,7 C 11,1 C 87 % 994,2 hPa 0,0 l/m 0 min 0 min 0 W/m 27,2 km/h (4 Bft)
03.11.2014 20:26 13,7 C 11,7 C 87 % 994,2 hPa 0,0 l/m 0 min 0 min 0 W/m 27,2 km/h (4 Bft)
03.11.2014 20:28 13,7 C 11,7 C 87 % 994,2 hPa 0,0 l/m 0 min 0 min 0 W/m 27,2 km/h (4 Bft)
03.11.2014 20:30 13,7 C 11,1 C 87 % 994,2 hPa 0,0 l/m 0 min 0 min 0 W/m 25,1 km/h (4 Bft)
03.11.2014 20:32 13,7 C 11,7 C 87 % 994,2 hPa 0,0 l/m 0 min 0 min 0 W/m 18,8 km/h (3 Bft)
03.11.2014 20:34 13,7 C 11,7 C 87 % 994,0 hPa 0,0 l/m 0 min 0 min 0 W/m 23,0 km/h (4 Bft)
03.11.2014 20:36 13,7 C 11,7 C 86 % 993,9 hPa 0,0 l/m 0 min 0 min 0 W/m 29,3 km/h (5 Bft)
03.11.2014 20:38 13,7 C 11,7 C 87 % 993,8 hPa 0,0 l/m 0 min 0 min 0 W/m 16,7 km/h (3 Bft)
03.11.2014 20:40 13,7 C 11,7 C 87 % 993,8 hPa 0,0 l/m 0 min 0 min 0 W/m 20,9 km/h (4 Bft)
03.11.2014 20:42 13,7 C 11,7 C 86 % 993,7 hPa 0,0 l/m 0 min 0 min 0 W/m 27,2 km/h (4 Bft)
03.11.2014 20:44 13,7 C 11,7 C 86 % 993,8 hPa 0,0 l/m 0 min 0 min 0 W/m 23,0 km/h (4 Bft)
03.11.2014 20:46 13,7 C 11,7 C 86 % 993,8 hPa 0,0 l/m 0 min 0 min 0 W/m 20,9 km/h (4 Bft)
03.11.2014 20:48 13,7 C 11,7 C 86 % 993,8 hPa 0,0 l/m 0 min 0 min 0 W/m 27,2 km/h (4 Bft)
03.11.2014 20:50 13,7 C 11,7 C 86 % 993,6 hPa 0,0 l/m 0 min 0 min 0 W/m 23,0 km/h (4 Bft)
03.11.2014 20:52 13,7 C 11,7 C 86 % 993,6 hPa 0,0 l/m 0 min 0 min 0 W/m 31,4 km/h (5 Bft)
03.11.2014 20:54 13,8 C 11,7 C 86 % 993,5 hPa 0,0 l/m 0 min 0 min 0 W/m 20,9 km/h (4 Bft)
03.11.2014 20:56 13,8 C 11,7 C 86 % 993,6 hPa 0,0 l/m 0 min 0 min 0 W/m 29,3 km/h (5 Bft)
03.11.2014 20:58 13,8 C 11,7 C 85 % 993,6 hPa 0,0 l/m 0 min 0 min 0 W/m 20,9 km/h (4 Bft)
03.11.2014 21:00 13,8 C 11,7 C 85 % 993,6 hPa 0,0 l/m 0 min 0 min 0 W/m 25,1 km/h (4 Bft)
03.11.2014 21:02 13,8 C 11,7 C 85 % 993,7 hPa 0,0 l/m 0 min 0 min 0 W/m 16,7 km/h (3 Bft)
03.11.2014 21:04 13,8 C 11,7 C 85 % 993,7 hPa 0,0 l/m 0 min 0 min 0 W/m 25,1 km/h (4 Bft)
03.11.2014 21:06 13,8 C 11,7 C 85 % 993,6 hPa 0,0 l/m 0 min 0 min 0 W/m 23,0 km/h (4 Bft)
03.11.2014 21:08 13,8 C 11,7 C 85 % 993,7 hPa 0,0 l/m 0 min 0 min 0 W/m 27,2 km/h (4 Bft)
03.11.2014 21:10 13,8 C 11,7 C 85 % 993,6 hPa 0,0 l/m 0 min 0 min 0 W/m 29,3 km/h (5 Bft)
03.11.2014 21:12 13,8 C 12,2 C 85 % 993,6 hPa 0,0 l/m 0 min 0 min 0 W/m 25,1 km/h (4 Bft)
03.11.2014 21:14 13,8 C 12,2 C 85 % 993,6 hPa 0,0 l/m 0 min 0 min 0 W/m 27,2 km/h (4 Bft)
03.11.2014 21:16 13,9 C 11,7 C 85 % 993,5 hPa 0,0 l/m 0 min 0 min 0 W/m 18,8 km/h (3 Bft)
03.11.2014 21:18 13,9 C 11,7 C 85 % 993,4 hPa 0,0 l/m 0 min 0 min 0 W/m 20,9 km/h (4 Bft)
03.11.2014 21:20 13,9 C 11,7 C 85 % 993,5 hPa 0,0 l/m 0 min 0 min 0 W/m 20,9 km/h (4 Bft)
03.11.2014 21:22 13,9 C 12,2 C 84 % 993,3 hPa 0,0 l/m 0 min 0 min 0 W/m 29,3 km/h (5 Bft)
03.11.2014 21:24 13,9 C 12,2 C 84 % 993,3 hPa 0,0 l/m 0 min 0 min 0 W/m 25,1 km/h (4 Bft)
03.11.2014 21:26 13,9 C 12,2 C 84 % 993,2 hPa 0,0 l/m 0 min 0 min 0 W/m 29,3 km/h (5 Bft)
03.11.2014 21:28 13,9 C 12,2 C 85 % 993,2 hPa 0,0 l/m 0 min 0 min 0 W/m 33,5 km/h (5 Bft)
03.11.2014 21:30 13,9 C 12,2 C 84 % 993,2 hPa 0,0 l/m 0 min 0 min 0 W/m 33,5 km/h (5 Bft)
03.11.2014 21:32 13,9 C 12,2 C 85 % 993,3 hPa 0,0 l/m 0 min 0 min 0 W/m 31,4 km/h (5 Bft)
03.11.2014 21:34 14,0 C 12,2 C 85 % 993,1 hPa 0,0 l/m 0 min 0 min 0 W/m 25,1 km/h (4 Bft)
03.11.2014 21:36 14,0 C 12,2 C 84 % 993,3 hPa 0,0 l/m 0 min 0 min 0 W/m 29,3 km/h (5 Bft)
03.11.2014 21:38 14,0 C 12,2 C 84 % 993,3 hPa 0,0 l/m 0 min 0 min 0 W/m 23,0 km/h (4 Bft)
03.11.2014 21:40 14,0 C 12,2 C 84 % 993,2 hPa 0,0 l/m 0 min 0 min 0 W/m 27,2 km/h (4 Bft)
03.11.2014 21:42 14,1 C 12,2 C 84 % 993,2 hPa 0,0 l/m 0 min 0 min 0 W/m 35,6 km/h (5 Bft)
03.11.2014 21:44 14,1 C 12,2 C 84 % 993,2 hPa 0,0 l/m 0 min 0 min 0 W/m 31,4 km/h (5 Bft)
03.11.2014 21:46 14,2 C 12,2 C 84 % 993,1 hPa 0,0 l/m 0 min 0 min 0 W/m 27,2 km/h (4 Bft)
03.11.2014 21:48 14,2 C 12,2 C 84 % 993,1 hPa 0,0 l/m 0 min 0 min 0 W/m 31,4 km/h (5 Bft)
03.11.2014 21:50 14,2 C 12,8 C 84 % 993,0 hPa 0,0 l/m 0 min 0 min 0 W/m 35,6 km/h (5 Bft)
03.11.2014 21:52 14,2 C 12,8 C 84 % 992,9 hPa 0,0 l/m 0 min 0 min 0 W/m 39,7 km/h (6 Bft)
03.11.2014 21:54 14,2 C 12,8 C 84 % 992,9 hPa 0,0 l/m 0 min 0 min 0 W/m 35,6 km/h (5 Bft)
03.11.2014 21:56 14,2 C 12,8 C 84 % 992,9 hPa 0,0 l/m 0 min 0 min 0 W/m 31,4 km/h (5 Bft)
03.11.2014 21:58 14,2 C 12,8 C 84 % 992,9 hPa 0,0 l/m 0 min 0 min 0 W/m 27,2 km/h (4 Bft)
03.11.2014 22:00 14,2 C 12,8 C 84 % 992,9 hPa 0,0 l/m 0 min 0 min 0 W/m 31,4 km/h (5 Bft)
03.11.2014 22:02 14,2 C 12,8 C 84 % 992,8 hPa 0,0 l/m 0 min 0 min 0 W/m 29,3 km/h (5 Bft)
03.11.2014 22:04 14,2 C 12,8 C 84 % 992,8 hPa 0,0 l/m 0 min 0 min 0 W/m 25,1 km/h (4 Bft)
03.11.2014 22:06 14,2 C 12,8 C 84 % 992,7 hPa 0,0 l/m 0 min 0 min 0 W/m 29,3 km/h (5 Bft)
03.11.2014 22:08 14,2 C 12,8 C 84 % 992,6 hPa 0,0 l/m 0 min 0 min 0 W/m 23,0 km/h (4 Bft)
03.11.2014 22:10 14,2 C 12,8 C 84 % 992,5 hPa 0,0 l/m 0 min 0 min 0 W/m 31,4 km/h (5 Bft)
03.11.2014 22:12 14,2 C 12,8 C 84 % 992,5 hPa 0,0 l/m 0 min 0 min 0 W/m 23,0 km/h (4 Bft)
03.11.2014 22:14 14,2 C 12,8 C 84 % 992,4 hPa 0,0 l/m 0 min 0 min 0 W/m 31,4 km/h (5 Bft)
03.11.2014 22:16 14,2 C 12,8 C 84 % 992,4 hPa 0,0 l/m 0 min 0 min 0 W/m 25,1 km/h (4 Bft)
03.11.2014 22:18 14,2 C 12,8 C 84 % 992,4 hPa 0,0 l/m 0 min 0 min 0 W/m 27,2 km/h (4 Bft)
03.11.2014 22:20 14,2 C 12,8 C 84 % 992,4 hPa 0,0 l/m 0 min 0 min 0 W/m 27,2 km/h (4 Bft)
03.11.2014 22:22 14,2 C 12,8 C 84 % 992,4 hPa 0,0 l/m 0 min 0 min 0 W/m 29,3 km/h (5 Bft)
03.11.2014 22:24 14,3 C 12,8 C 84 % 992,4 hPa 0,0 l/m 0 min 0 min 0 W/m 25,1 km/h (4 Bft)
03.11.2014 22:26 14,3 C 12,8 C 84 % 992,2 hPa 0,0 l/m 0 min 0 min 0 W/m 41,8 km/h (6 Bft)
03.11.2014 22:28 14,3 C 12,8 C 84 % 992,2 hPa 0,0 l/m 0 min 0 min 0 W/m 33,5 km/h (5 Bft)
03.11.2014 22:30 14,3 C 12,8 C 84 % 992,2 hPa 0,0 l/m 0 min 0 min 0 W/m 27,2 km/h (4 Bft)
03.11.2014 22:32 14,3 C 12,8 C 84 % 992,2 hPa 0,0 l/m 0 min 0 min 0 W/m 23,0 km/h (4 Bft)
03.11.2014 22:34 14,4 C 12,8 C 84 % 992,1 hPa 0,0 l/m 0 min 0 min 0 W/m 33,5 km/h (5 Bft)
03.11.2014 22:36 14,4 C 12,8 C 84 % 992,1 hPa 0,0 l/m 0 min 0 min 0 W/m 31,4 km/h (5 Bft)
03.11.2014 22:38 14,4 C 12,8 C 84 % 992,1 hPa 0,0 l/m 0 min 0 min 0 W/m 29,3 km/h (5 Bft)
03.11.2014 22:40 14,4 C 12,8 C 84 % 992,0 hPa 0,0 l/m 0 min 0 min 0 W/m 29,3 km/h (5 Bft)
03.11.2014 22:42 14,4 C 12,8 C 84 % 991,9 hPa 0,0 l/m 0 min 0 min 0 W/m 31,4 km/h (5 Bft)
03.11.2014 22:44 14,4 C 12,8 C 84 % 991,8 hPa 0,0 l/m 0 min 0 min 0 W/m 20,9 km/h (4 Bft)
03.11.2014 22:46 14,4 C 12,8 C 84 % 991,8 hPa 0,0 l/m 0 min 0 min 0 W/m 23,0 km/h (4 Bft)
03.11.2014 22:48 14,4 C 12,8 C 84 % 991,7 hPa 0,0 l/m 0 min 0 min 0 W/m 20,9 km/h (4 Bft)
03.11.2014 22:50 14,4 C 12,8 C 84 % 991,7 hPa 0,0 l/m 0 min 0 min 0 W/m 31,4 km/h (5 Bft)
03.11.2014 22:52 14,4 C 12,8 C 84 % 991,8 hPa 0,0 l/m 0 min 0 min 0 W/m 25,1 km/h (4 Bft)
03.11.2014 22:54 14,4 C 12,8 C 84 % 991,9 hPa 0,0 l/m 0 min 0 min 0 W/m 31,4 km/h (5 Bft)
03.11.2014 22:56 14,4 C 12,8 C 84 % 991,8 hPa 0,0 l/m 0 min 0 min 0 W/m 37,7 km/h (5 Bft)
03.11.2014 22:58 14,4 C 12,8 C 83 % 991,8 hPa 0,0 l/m 0 min 0 min 0 W/m 33,5 km/h (5 Bft)
03.11.2014 23:00 14,4 C 12,8 C 83 % 991,9 hPa 0,0 l/m 0 min 0 min 0 W/m 23,0 km/h (4 Bft)
03.11.2014 23:02 14,4 C 12,8 C 83 % 991,8 hPa 0,0 l/m 0 min 0 min 0 W/m 25,1 km/h (4 Bft)
03.11.2014 23:04 14,5 C 12,8 C 83 % 991,9 hPa 0,0 l/m 0 min 0 min 0 W/m 27,2 km/h (4 Bft)
03.11.2014 23:06 14,5 C 12,8 C 83 % 992,2 hPa 0,0 l/m 0 min 0 min 0 W/m 33,5 km/h (5 Bft)
03.11.2014 23:08 14,4 C 12,2 C 83 % 992,2 hPa 0,0 l/m 0 min 2 min 0 W/m 23,0 km/h (4 Bft)
03.11.2014 23:10 14,3 C 11,7 C 82 % 992,3 hPa 0,0 l/m 0 min 2 min 0 W/m 14,6 km/h (3 Bft)
03.11.2014 23:12 14,2 C 11,1 C 82 % 992,6 hPa 0,0 l/m 0 min 2 min 0 W/m 33,5 km/h (5 Bft)
03.11.2014 23:14 14,2 C 10,0 C 82 % 992,6 hPa 1,2 l/m 0 min 2 min 0 W/m 25,1 km/h (4 Bft)
03.11.2014 23:16 13,9 C 10,0 C 83 % 992,6 hPa 0,6 l/m 0 min 2 min 0 W/m 20,9 km/h (4 Bft)
03.11.2014 23:18 13,7 C 10,0 C 84 % 992,8 hPa 0,8 l/m 0 min 2 min 0 W/m 29,3 km/h (5 Bft)
03.11.2014 23:20 13,5 C 9,4 C 84 % 993,0 hPa 0,4 l/m 0 min 2 min 0 W/m 23,0 km/h (4 Bft)
03.11.2014 23:22 13,3 C 9,4 C 85 % 992,8 hPa 0,0 l/m 0 min 2 min 0 W/m 18,8 km/h (3 Bft)
03.11.2014 23:24 13,1 C 9,4 C 85 % 992,8 hPa 0,2 l/m 0 min 2 min 0 W/m 18,8 km/h (3 Bft)
03.11.2014 23:26 12,9 C 9,4 C 85 % 992,8 hPa 0,0 l/m 0 min 2 min 0 W/m 12,6 km/h (3 Bft)
03.11.2014 23:28 12,7 C 9,4 C 86 % 992,9 hPa 0,0 l/m 0 min 2 min 0 W/m 16,7 km/h (3 Bft)
03.11.2014 23:30 12,6 C 9,4 C 86 % 993,1 hPa 0,2 l/m 0 min 2 min 0 W/m 20,9 km/h (4 Bft)
03.11.2014 23:32 12,3 C 9,4 C 86 % 993,1 hPa 0,2 l/m 0 min 2 min 0 W/m 8,4 km/h (2 Bft)
03.11.2014 23:34 12,2 C 9,4 C 87 % 993,1 hPa 0,4 l/m 0 min 2 min 0 W/m 14,6 km/h (3 Bft)
03.11.2014 23:36 12,1 C 8,9 C 87 % 993,0 hPa 0,6 l/m 0 min 2 min 0 W/m 18,8 km/h (3 Bft)
03.11.2014 23:38 11,8 C 8,9 C 87 % 992,9 hPa 0,2 l/m 0 min 2 min 0 W/m 16,7 km/h (3 Bft)
03.11.2014 23:40 11,7 C 8,9 C 87 % 993,0 hPa 0,0 l/m 0 min 2 min 0 W/m 14,6 km/h (3 Bft)
03.11.2014 23:42 11,6 C 8,9 C 88 % 992,9 hPa 0,2 l/m 0 min 2 min 0 W/m 14,6 km/h (3 Bft)
03.11.2014 23:44 11,4 C 8,9 C 88 % 993,2 hPa 0,2 l/m 0 min 0 min 0 W/m 16,7 km/h (3 Bft)
03.11.2014 23:46 11,3 C 8,9 C 88 % 993,1 hPa 0,0 l/m 0 min 0 min 0 W/m 12,6 km/h (3 Bft)
03.11.2014 23:48 11,2 C 8,9 C 89 % 993,2 hPa 0,2 l/m 0 min 0 min 0 W/m 12,6 km/h (3 Bft)
03.11.2014 23:50 11,2 C 8,9 C 89 % 993,1 hPa 0,2 l/m 0 min 0 min 0 W/m 12,6 km/h (3 Bft)
03.11.2014 23:52 11,1 C 8,9 C 89 % 993,2 hPa 0,2 l/m 0 min 0 min 0 W/m 10,5 km/h (2 Bft)
03.11.2014 23:54 11,0 C 8,9 C 89 % 993,2 hPa 0,2 l/m 0 min 0 min 0 W/m 10,5 km/h (2 Bft)
03.11.2014 23:56 10,9 C 8,9 C 90 % 993,2 hPa 0,0 l/m 0 min 0 min 0 W/m 10,5 km/h (2 Bft)
03.11.2014 23:58 10,8 C 8,9 C 90 % 993,3 hPa 0,4 l/m 0 min 0 min 0 W/m 12,6 km/h (3 Bft)
_ Min-Zeit 23:58 23:36 15:36 22:48 - - - - 05:40
Minimum _ 10,8 C 8,9 C 68 % 991,7 hPa - - - - 6,3 km/h (2 Bft)
_ Max-Zeit 12:54 11:40 00:00 00:00 23:14 07:44 00:00 11:22 16:16
Maximum _ 16,2 C 15,0 C 95 % 1005,8 hPa 1,2 l/m 2 min 2 min 305 W/m 50,2 km/h
S-SW (7 Bft)
Durchschnitt _ 14,2 C 12,2 C 84 % 999,7 hPa #7,6 l/m #3:28 h #9:07 h 118 W/m 23,8 km/h (4 Bft)
© 2014 W. Hausmann